Upgrade Notice

The CPAN Testers Statistics site has been upgraded since you last accessed the site. Please press the F5 key or CTRL-R to refresh your browser cache to use the latest javascript and CSS files.

New Distributions submitted during 2005

Contents

Below are all the distributions released for the first time during 2005

New Distributions for January 2005 (243)

AuthorDistributionVersionRelease Date/Time
BTROTTURI-Fetch0.012004-12-31 19:43:51
MIGOArch0.4.02004-12-31 20:41:49
IVORWArchive-Tar-Streamed0.022005-01-01 06:43:13
GBROWNX11-FreeDesktop-DesktopEntry0.012005-01-01 15:05:53
LOLOPalm-SMS0.012005-01-02 08:36:57
SHYWifi0.01a2005-01-02 17:02:38
STASApache-DebugFilter0.01_012005-01-02 18:19:18
RJBSANtricity-SMcli0.012005-01-03 11:05:57
JOSEPHWFileCache-Handle0.0012005-01-03 11:37:22
ROODEComma0.012005-01-03 14:18:14
DAGOLDENTest-Number-Delta0.112005-01-04 00:04:00
WAGNERFinance-Amortization0.22005-01-04 03:43:54
DDICKDate-Holidays-AU0.012005-01-04 05:59:29
VADIMLTk-DBI-DBGrid0.012005-01-04 06:50:27
SRIClass-DBI-FromForm0.012005-01-04 10:09:59
CANGELLTie-File-AsHash0.022005-01-04 16:47:36
DMAKIClass-Validating0.012005-01-04 17:02:47
PATLTime-Out0.012005-01-04 17:04:39
RFRANKELiCal-Parser-HTML1.042005-01-04 17:28:28
RRWOAcme-Mobile-Therbligs0.042005-01-04 22:35:26
MRAMBERGMaypole-Plugin-Upload0.012005-01-05 06:57:56
CWESTPod-Webserver-Source1.012005-01-05 07:23:22
JONATHANMath-Calculus-Expression0.12005-01-05 19:41:55
JONATHANMath-Calculus-NewtonRaphson0.12005-01-05 19:44:21
OFEYAIKONGtk2-Ex-TreeMaker0.012005-01-05 20:25:38
KAHNLingua-Treebank0.092005-01-05 21:10:50
SBURKELingua-EN-Numbers-Years1.012005-01-05 22:28:46
ALLENDAYDBD-iPod0.012005-01-06 02:41:40
CCOLBOURNAI-NNFlex0.12005-01-06 05:24:53
CWESTRegexp-Common-Email-Address1.012005-01-06 11:06:28
RRWOCPAN-Mini-Tested0.012005-01-06 14:27:59
DAMSGtk2Fu0.042005-01-06 19:41:18
SAMVDate-Holidays-NZ0.992005-01-06 22:41:20
VIDULSQLite-Abstract0.12005-01-06 23:36:53
OVIDaliased0.12005-01-06 23:49:57
MRAMBERGHTTP-Server-Simple-Static0.012005-01-07 00:34:30
ALEXMVXML-Simple-DTDReader0.012005-01-07 06:39:37
DPAVLINBiblio-Isis0.112005-01-07 15:59:39
ROODETie-Comma0.042005-01-07 17:23:19
ROODETie-Plural0.012005-01-07 17:23:35
DDICKNet-DNS-DynDNS0.92005-01-07 17:45:01
IKALLENXML-XOXO0.032005-01-07 20:48:52
LBROCARDString-Koremutake0.282005-01-08 06:48:31
STEFFENWLocale-Maketext-TieHash-L10N0.012005-01-08 14:15:20
STEFFENWLocale-Maketext-TieHash-quant0.012005-01-08 14:26:47
STEFFENWLocale-Maketext-TieHash-nbsp0.012005-01-08 14:27:04
NUFFINXML-SAX-Expat-Incremental0.012005-01-08 17:59:36
NUFFINXML-SAX-ExpatNB0.012005-01-08 18:49:10
BTROTTPOE-Component-BlogCloud0.012005-01-09 00:49:23
ADAMKPPI-Tinderbox0.012005-01-09 02:54:27
JOHNAText-Cipher-KeywordAlphabet1.0022005-01-09 12:19:20
SHYAcpi0.12005-01-09 15:15:56
SJSMITHGetopt-OO0.012005-01-09 18:23:58
MRAMBERGMaypole-HTTPD0.12005-01-09 19:22:44
RENEEBBio-FastaStream0.012005-01-10 04:42:43
BRICASEmail-Store-Language0.012005-01-10 12:56:08
JOHNAText-EscapeDelimiters1.0032005-01-10 15:47:59
STEVANTree-Simple-Manager0.012005-01-10 16:53:16
DANPEDERText-HandyMarkup0.102005-01-10 18:28:54
CWESTClass-DBI-AsXML1.012005-01-10 19:34:22
DMANURASQL-Interpolate0.302005-01-11 01:16:32
IVANBusiness-OnlinePayment-SecureHostingUPG0.012005-01-11 02:23:01
CWESTFile-Pid1.012005-01-11 08:06:36
CLKAORunApp0.102005-01-11 08:33:04
INGYKwiki-PagePrivacy0.102005-01-11 11:34:49
JESSEHTTP-Server-Simple-Mason0.012005-01-11 16:15:27
GUGODKwiki-NavigationToolbar0.012005-01-12 01:26:05
RLAUGHLINUDPmsg0.102005-01-12 09:02:11
YAPPOPHP-Functions-Mail0.012005-01-12 09:10:30
DISTLERMathML-Entities0.112005-01-12 11:24:10
CWESTHTTP-Request-Params1.012005-01-12 11:40:09
ITUBJavaScript-Autocomplete-Backend0.102005-01-12 19:46:25
JETTEROMath-Units-PhysicalValue0.362005-01-13 07:18:59
EGERMANLemonldap-Portal-Cda0.012005-01-13 07:23:24
SIMONWAcme-Magic8Ball1.02005-01-13 08:45:02
ADAMKData-Package0.012005-01-13 09:45:33
BOOKAcme-MetaSyntactic0.012005-01-13 18:44:12
DMITRYMySQL-Backup0.012005-01-13 19:05:06
AMALTSEVXAO-ImageCache12005-01-13 21:42:19
AMALTSEVXAO-Indexer1.012005-01-13 21:59:06
GMPASSOSAI-NNEasy0.012005-01-13 23:01:49
DANPEDERDynaPage-Apache20.902005-01-14 07:24:47
DANPEDERDynaPage-Document0.902005-01-14 07:25:04
DANPEDERDynaPage-Document-ext-include0.102005-01-14 07:25:21
DANPEDERDynaPage-Sourcer0.902005-01-14 07:25:40
DANPEDERDynaPage-Template0.902005-01-14 07:25:56
KJETILKApache-AxKit-Provider-File-Formatter0.012005-01-14 09:42:09
PHILCROWJava-Swing0.022005-01-14 14:46:03
BOZOFry-Lib-BioPerl0.152005-01-14 15:54:17
PATLFile-FDkeeper0.032005-01-14 19:09:36
RUBYKATPosy-Plugin-AntiSpambot0.422005-01-15 05:45:13
RUBYKATPosy-Plugin-BinFile0.402005-01-15 05:45:33
RUBYKATPosy-Plugin-Canonical0.402005-01-15 05:47:38
RUBYKATPosy-Plugin-Categories0.402005-01-15 05:47:55
RUBYKATPosy-Plugin-CgiCarp0.402005-01-15 05:49:58
RUBYKATPosy-Plugin-Dump0.402005-01-15 05:50:15
RUBYKATPosy-Plugin-DynamicCss0.402005-01-15 05:50:32
RUBYKATPosy-Plugin-EntryTitles0.402005-01-15 05:52:35
RUBYKATPosy-Plugin-FileStats0.402005-01-15 05:52:51
RUBYKATPosy-Plugin-FlavourMenu0.402005-01-15 05:55:03
RUBYKATPosy-Plugin-LinkExtra0.402005-01-15 05:55:21
RUBYKATPosy-Plugin-LinkList0.402005-01-15 05:55:37
RUBYKATPosy-Plugin-LocalDepth0.402005-01-15 05:55:54
RUBYKATPosy-Plugin-NearLinks0.402005-01-15 05:58:01
RUBYKATPosy-Plugin-Pod0.402005-01-15 05:58:18
RUBYKATPosy-Plugin-RandQuote0.402005-01-15 05:58:33
RUBYKATPosy-Plugin-ShortBody0.402005-01-15 05:58:49
RUBYKATPosy-Plugin-TextTemplate0.402005-01-15 05:59:06
RUBYKATPosy-Plugin-TextToHTML0.402005-01-15 05:59:22
RUBYKATPosy-Plugin-ThemeCss0.402005-01-15 06:01:12
RUBYKATPosy-Plugin-ThisFlavour0.402005-01-15 06:01:28
RUBYKATPosy-Plugin-Toc0.402005-01-15 06:01:43
RUBYKATPosy-Plugin-YamlConfig0.402005-01-15 06:01:59
SZABGABCPAN-Forum0.09_022005-01-15 07:12:49
KENTAROWebService-LastFM0.012005-01-15 07:45:58
ADAMKPPI-HTML0.012005-01-15 10:45:40
JMEHNLEWWW-Restaurant-Menu0.112005-01-15 11:18:50
DMUEYGD-Image-Orientation0.012005-01-15 17:53:27
DMUEYGD-Image-AnimatedGif0.012005-01-15 17:53:47
RUBYKATBundle-Posy0.502005-01-15 22:18:28
JEAGLEParse-EventLog0.52005-01-16 02:25:36
PJBCrypt-Tea_JS2.102005-01-16 02:49:10
RUBYKATPosy-Plugin-Paginate0.102005-01-16 06:15:04
CMANLEYMobile-UserAgent1.012005-01-16 07:32:56
KANECPANPLUS-Daemon0.012005-01-16 08:35:14
KANEBundle-CPANPLUS0.012005-01-16 08:37:18
KANEVariable-Watcher0.012005-01-16 09:37:03
RJBSReligion-Bible-Reference0.00_012005-01-16 12:33:20
SAPERBot-Babelfish0.012005-01-16 18:43:17
DAVIDNICOArray-Frugal0.012005-01-17 03:14:51
SIMONWAcme-Scurvy-Whoreson-BilgeRat-Backend-insultserver1.02005-01-17 06:04:07
RUBYKATPosy-Plugin-FindGrep0.102005-01-17 06:20:21
OPIIO-Handle-Record0.012005-01-17 11:26:51
GUGODAlgorithm-SocialNetwork0.01_012005-01-17 13:30:28
ALFWAFS-Monitor0.2.22005-01-17 15:09:33
GOMORClass-Gomor-Hash0.202005-01-17 16:30:41
EYCKNet-Lite-FTP0.112005-01-18 04:03:27
COGGames-PetalsAroundTheRose0.012005-01-18 04:15:01
JGARVINDateTime-Format-WindowsFileTime0.012005-01-18 11:09:49
KIRSLEGames-Manager1002005-01-18 17:08:41
ONDRAZ-Splitter0.582005-01-19 05:36:13
SMUELLERMath-SymbolicX-NoSimplification0.012005-01-19 08:40:28
MLFISHERTest-MockDBI0.502005-01-19 10:41:55
TOBIFinance-Bank-Commerzbank0.212005-01-19 18:23:09
CDENTKwiki-Soap0.042005-01-19 19:25:35
NACHBAURApache-AxKit-Language-SpellCheck0.012005-01-19 19:57:22
JAEPSTEINMassSpec-ViewSpectrum02005-01-19 20:50:57
MMATHEWSHTML-Entities-Latin20.012005-01-20 05:37:11
JWHITESlideMap1_2_12005-01-20 12:56:57
REIDAlgorithm-Pair-Best1.0082005-01-20 13:17:57
RLBParse-Name0.022005-01-20 15:26:24
SAPERCPAN-Dependency0.012005-01-20 18:56:01
EWIJAYASort-Radix0.012005-01-21 06:01:13
CDRAKECrypt-MatrixSSL0.012005-01-21 07:36:01
SMUELLERBundle-Math-Symbolic1.002005-01-21 09:02:45
MCMAHONTest-WWW-Simple0.022005-01-21 17:32:42
JMEHNLEClamAV-Client0.112005-01-21 17:59:19
BLAIRWWW-RaptureReady0.12005-01-22 01:02:43
XANTUSFilesys-Virtual-Plain0.052005-01-22 01:13:02
RUBYKATPosy-Plugin-NotFound0.102005-01-22 02:04:28
LBROCARDNet-Amazon-SimpleQueue0.292005-01-22 11:16:14
RRWOCPAN-YACSmoke0.012005-01-22 12:29:19
FRANKIEHTML-Widgets-Index0.52005-01-22 14:58:59
RLBLingua-EN-Parse-PersonsName0.042005-01-23 01:09:02
LLAPMac-Glue-Apps-AddressBookExport0.12005-01-23 08:34:12
HBABCOCKPDL-Graphics-AquaTerm0.012005-01-23 15:00:44
OVIDAI-Prolog0.022005-01-23 15:17:31
REIDGames-Go-GoPair1.0012005-01-23 22:14:37
REIDGames-Go-AGATourn1.0352005-01-23 23:40:57
BARBIERegexp-Log-Common0.012005-01-24 06:06:55
GMGWTweb0.12005-01-24 10:50:09
JAEPSTEINMassSpec-ViewSpectrum0022005-01-24 16:43:59
COGFilesys-Tree0.012005-01-24 16:50:36
ZEFRAMTime-UTC0.0002005-01-24 19:34:39
IWADEFinance-Bank-AU-StGeorge0.012005-01-24 19:40:19
BRENTDAXDBIx-Path0.012005-01-25 02:25:22
GMGHTML-WTweb0.012005-01-25 04:24:16
TBONEChess-Elo0.012005-01-25 12:27:44
MSCHILLIAcme-Prereq-A0.012005-01-25 22:27:57
MSCHILLIAcme-Prereq-B0.012005-01-25 22:30:07
MARKLEObject-Poofv0.22005-01-26 01:57:05
MARKLEObject-POOF0.022005-01-26 02:00:31
KJETILKFormatter0.922005-01-26 05:49:02
KENTAROXML-Feed-JavaScript0.012005-01-26 10:26:58
PATLInline-Select0.012005-01-26 10:38:14
PATLApache-HTTunnel0.012005-01-26 11:52:02
PATLHTTunnel-Client0.012005-01-26 11:53:55
BARBIEMail-File0.052005-01-26 12:53:09
BARBIEMail-Outlook0.062005-01-26 12:54:59
BINGOSPOE-Component-Server-Echo0.92005-01-26 14:05:24
BSDZTie-iCal0.112005-01-26 14:26:22
BDONLANTie-StorableDir0.072005-01-26 16:40:56
DARNOLDSQL-Preproc0.102005-01-26 20:01:38
SILIText-Template-Queue0.12005-01-27 02:44:13
BINGOSPOE-Component-Server-Discard1.02005-01-27 05:58:28
BINGOSPOE-Component-Server-Chargen1.02005-01-27 07:54:13
ADAMKFile-LocalizeNewlines0.012005-01-27 08:41:34
BINGOSPOE-Component-Server-Qotd1.02005-01-27 09:20:09
ADAMKPPI-XS0.9002005-01-27 09:35:40
BINGOSPOE-Component-Server-Daytime1.02005-01-27 10:22:45
BINGOSPOE-Component-Server-Time1.02005-01-27 10:40:51
TBONEHTML-Element-Library0.012005-01-27 12:48:46
PORTONDBI-Transaction0.1012005-01-27 14:07:50
PAULVPOE-Filter-Log-IPTables0.012005-01-27 17:49:18
DWHEELERClass-Delegator0.012005-01-27 19:06:49
BTROTTWWW-Blog-Metadata0.012005-01-28 01:48:04
KJETILKFormatter-HTML-HTML0.93_12005-01-28 11:46:51
SRICatalyst2.99_122005-01-28 18:53:53
SRICatalyst-Model-CDBI0.012005-01-28 18:54:11
SRICatalyst-Model-CDBI-CRUD0.012005-01-28 18:54:29
SRICatalyst-Model-Plucene0.012005-01-28 18:54:46
SRICatalyst-Plugin-Authentication-CDBI0.012005-01-28 18:56:49
SRICatalyst-Plugin-Email0.012005-01-28 18:57:08
SRICatalyst-Plugin-FillInForm0.012005-01-28 18:57:25
SRICatalyst-Plugin-FormValidator0.012005-01-28 18:57:42
SRICatalyst-Plugin-I18N0.012005-01-28 18:57:59
SRICatalyst-Plugin-Session-FastMmap0.012005-01-28 18:58:17
SRICatalyst-Plugin-Static0.012005-01-28 19:00:20
SRICatalyst-View-REST-XML0.012005-01-28 19:00:37
SRICatalyst-View-REST-YAML0.012005-01-28 19:00:54
SRICatalyst-View-TT0.012005-01-28 19:01:10
SRIBundle-Catalyst0.012005-01-28 19:01:28
CHIPTFile-Inplace0.202005-01-28 22:54:17
LBROCARDWWW-Gazetteer-FallingRain0.142005-01-29 05:21:07
ADAMKFile-Find-Rule-PPI0.012005-01-29 07:41:04
GMPASSOSThread-Isolate0.012005-01-29 16:19:10
MGRAHAMConfig-General-Match0.032005-01-29 17:26:37
MGRAHAMCGI-Application-Plugin-Config-General0.032005-01-29 17:26:55
JOOONKwiki-CoolURI0.042005-01-29 18:38:23
JOOONKwiki-Theme-Bluepole1.002005-01-29 18:44:08
GUGODAcme-Tests0.012005-01-30 05:14:10
JMERELOYAML-YuyuPress0.012005-01-30 08:34:11
DAGOLDENFile-RandomLine0.102005-01-30 16:30:14
XANTUSDevice-USB0.012005-01-31 05:53:25
BBCTest-Assertions1.0472005-01-31 07:27:45
BBCLog-Trace1.0692005-01-31 07:28:01
BBCHash-Flatten1.132005-01-31 07:30:05
BBCSub-Slice1.0472005-01-31 07:30:23
ESUMMERSMARC-SubjectMap0.12005-01-31 10:20:12
PBOWENBusiness-OnlinePayment-CyberSource0.022005-01-31 13:46:52
CWESTClass-DBI-UUID1.012005-01-31 13:50:18
LIOLTemplate-Plugin-Config-General0.012005-01-31 14:12:48
PBOWENAudio-Radio-XM-PCR0.022005-01-31 15:39:06

New Distributions for February 2005 (118)

AuthorDistributionVersionRelease Date/Time
ZAXOTie-Constrained0.032005-01-31 23:33:31
UNRTSTBundle-CCMS1.012005-02-01 11:31:10
JMFAYARDImage-Kimdaba0.42005-02-01 16:54:08
SREZICWE_Framework0.096_012005-02-01 17:28:43
JJOREAcme-Perlmonkify0.022005-02-02 03:41:57
SRIText-Folksonomies0.012005-02-02 21:41:10
ILYAZNet-ChooseFName0.012005-02-03 03:48:53
TIMBRODYHTTP-OAI3.002005-02-03 06:58:42
LWAMaildir-Quota0.32005-02-03 11:22:17
NEBULOUSLyrics-Fetcher-Google0.012005-02-03 14:46:41
TOPIAWWW-Mixi-OO0.022005-02-04 01:57:13
JONIONSPANT0.062005-02-04 05:26:50
KURIHARATemplate-Plugin-ExifTool0.012005-02-04 11:56:33
INGYKwiki-HomePagePreference0.102005-02-04 22:15:58
PETEKAlgorithm-SixDegrees0.012005-02-05 02:14:46
SMPETERSCPAN-Mini-Phalanx1000.012005-02-06 00:43:51
AUTRIJUSPerl6-Pugs6.0.02005-02-06 14:03:38
MSCHILLIFile-Comments0.012005-02-07 02:24:22
MIYAGAWAHTML-RelExtor0.012005-02-07 06:20:15
GUGODKwiki-Search-Plucene0.012005-02-07 13:34:50
RONANTransform-Canvas0.0032005-02-08 04:20:30
RONANSVG-Template-Graph0.032005-02-08 04:20:46
SIMONWEmail-Store-HTML0.12005-02-08 12:02:21
HARDAKERQWizard2.0.12005-02-08 17:43:59
RCLAMPEmail-Store-Pristine1.212005-02-08 18:29:37
MTHURNDevel-Fail-Make1.0052005-02-08 18:44:36
DBURDICKBio-ConnectDots1.0.02005-02-08 19:22:49
JDIEPENCGI-HTMLError1.002005-02-09 05:59:59
RCAPUTOText-Conversation0.012005-02-09 11:32:50
LAMECHClass-DBI-DataMigration0.012005-02-09 17:27:03
SMPETERSExtUtils-MakeMaker-Coverage0.01_012005-02-09 19:21:44
MTHURNDevel-Fail-MakeTest1.0032005-02-09 21:21:10
KUNGFUFTREmail-Envelope0.012005-02-10 09:05:04
BINGOSPOE-Filter-IRCD1.02005-02-10 10:21:48
SIMONWBuscador0.12005-02-10 11:06:05
ESSKARPerlIO-via-CBC0.022005-02-10 19:53:14
SMALHOTRAfinance-bdt0.012005-02-10 20:35:43
ADAMKFile-Find-Rule-VCS0.012005-02-11 00:54:52
CDENTKwiki-PageTemperature0.012005-02-11 03:14:19
DORIANApache-TrapSubRequest0.012005-02-11 04:02:27
MSICKELgeo-ecef1.0.02005-02-11 09:07:08
SZECKDb-GTM1.112005-02-11 12:48:28
MAVERICKApache-Voodoo1.102005-02-11 15:06:13
SSORICHETest-Output0.012005-02-12 01:17:32
JHORWITZAuthen-Krb51.42005-02-12 12:34:12
JROBINSONNet-Telnet-Options0.012005-02-12 16:35:05
GMPASSOSlib-http0.012005-02-12 18:19:23
JDIEPENText-PSP1.0002005-02-13 10:54:01
KLOHNERWebService-GoogleMaps0.012005-02-13 17:18:36
CDENTKwiki-Technorati0.032005-02-14 01:50:00
EGERMANLemonldap-Handlers-Generic0.012005-02-14 10:36:19
KCODYClass-Multi1.002005-02-14 11:08:32
KARASIKPHP0.012005-02-14 11:14:02
KCODYClass-Attrib1.002005-02-14 17:13:06
INGYKwiki-AdSense0.102005-02-15 10:28:51
SCHUBIGERCyborg0.012005-02-15 17:07:56
JGSTk-GraphViz0.132005-02-16 00:31:02
STROFTN-Address1.012005-02-16 10:05:38
COREYTemplate-Plugin-SSI0.102005-02-16 10:28:18
STROFTN-Nodelist1.012005-02-16 12:08:59
JJORDANTest-MockClass1.032005-02-16 15:45:27
TWHMusic-DB0.012005-02-16 20:37:01
MSERGEANTIO-KQueue0.252005-02-17 11:52:19
TMOERTELAutoCurry0.10012005-02-17 13:32:46
SJOMath-RootFind0.022005-02-17 18:56:52
WONKOData-FormValidator-Constraints-DateTime0.012005-02-17 23:05:58
METZZOTiVo-HME1.02005-02-17 23:49:26
JOOONKwiki-DNSBL0.012005-02-18 04:47:08
ICESPIRITBundle-Knetrix1.02005-02-18 05:08:00
RSECGI-GuruMeditation0.042005-02-18 08:01:13
STEVANBundle-Tree-Simple0.012005-02-18 11:35:11
MINTERXML-Atom-SimpleFeed0.12005-02-19 00:10:58
GAASMIME-Base64-Scripts1.002005-02-19 15:00:23
SJOMath-Function-Roots0.032005-02-20 11:37:21
DJHMaypole-Plugin-Authorization0.052005-02-20 12:06:48
HOLLINumber-Format-Calc0.012005-02-20 17:45:52
HBABCOCKPDL-Graphics-X0.012005-02-20 20:35:20
ASAKURAClass-DBI-Plugin-Iterator0.082005-02-21 09:45:02
SHLOMIFNet-SeedServe0.2.02005-02-21 15:20:23
SHLOMIFBundle-GimpTest0.2.02005-02-21 15:40:46
AREIBENSPDF-Maki0.00_04.MSWin32-4.0.ppm2005-02-21 17:23:39
AREIBENSPDF-Maki-0.00_04.MSWin324.0.ppm2005-02-21 17:23:39
RJEGames-Traveller-UWP0.92005-02-21 18:28:51
SALVADBD-Yaswi0.012005-02-21 19:46:45
DMAKIClass-DBI-LazyInflate0.012005-02-21 20:46:18
SILIErrors-Simple0.12005-02-21 23:11:05
RSAVAGEImage-Magick-Tiler1.002005-02-22 05:28:23
HDMConfig-Setting0.032005-02-22 08:36:45
EIKEGperl-tutorial1.02005-02-22 14:38:11
DJERIUSClass-DBI-Loader-Sybase0.012005-02-22 16:35:53
TWHBio-GMOD0.012005-02-22 19:16:15
RSAVAGESearch-InvertedIndex-Simple1.002005-02-23 05:14:45
ABIGAILLexical-Attributes1.12005-02-24 19:28:02
SCHUBIGERbuildconf0.132005-02-25 02:41:40
PEICHMANTie-Scalar-Timestamp0.012005-02-25 11:14:07
LAMMELText-Modify0.22005-02-25 12:12:37
DAMISearch-QueryParser0.92005-02-25 12:22:33
DAMIFile-Tabular0.602005-02-25 12:24:30
DAMISearch-Indexer0.702005-02-25 12:26:41
RJEGames-Traveller-UwpTools0.932005-02-25 14:04:50
RJEYAML-Yaml2Html0.52005-02-25 15:01:57
RJELingua-Tolkien-BURL0.502005-02-25 15:25:27
NILSONSFJError-TryCatch0.032005-02-26 01:20:43
MBOECKNet-Server-POP3proxy0.12005-02-26 12:09:58
ARJENPerlIO-via-Bzip20.012005-02-26 13:54:45
WYANTEncode-RAD500.0012005-02-26 16:08:42
SAMUELLCtype0.012005-02-26 23:39:03
TWHBundle-WormBase0.0012005-02-27 10:50:02
TWHAudio-DB0.012005-02-27 12:04:31
MRJONESTAP3-Tap3edit0.252005-02-27 14:29:55
ROBERTMAYWin32-GUI-HyperLink0.112005-02-27 19:23:44
CDENTKwiki-Test0.012005-02-27 20:05:08
CDENTKwiki-DatedAnnounce0.012005-02-28 00:59:24
CDENTKwiki-Purple0.022005-02-28 03:15:06
JBUHACOFFData-SimplePaginator0.12005-02-28 08:54:53
RJEGames-Traveller-Animals-AnimalEncounter0.502005-02-28 09:34:19
RJEGames-Traveller-Animals0.502005-02-28 09:36:25
JFRIEDLYahoo-Search1.0.02005-02-28 18:49:46

New Distributions for March 2005 (190)

AuthorDistributionVersionRelease Date/Time
ONDRAZ-CGI0.712005-02-28 22:47:04
SRIBundle-Catalyst-Everything0.012005-03-01 07:08:59
RSECGI-Session-ID-UUID0.012005-03-01 09:00:49
TANIMOTOTemplate-Plugin-String-Compare0.012005-03-01 11:45:39
BARBIEData-Phrasebook0.182005-03-01 12:11:30
RHANDOMTaint-Runtime0.022005-03-01 12:16:44
BARBIEData-Phrasebook-Loader-Ini0.022005-03-01 12:20:27
BARBIEData-Phrasebook-Loader-YAML0.022005-03-01 12:24:11
JKEENANIO-Capture-Stdout-Extended0.032005-03-01 15:00:06
SUNILSPDF-Xtract0.022005-03-01 17:35:26
GOZERPOSIX-strptime0.012005-03-01 19:30:19
ANDREWHOSys-PortIO0.012005-03-01 20:06:20
DAGOLDENTie-Handle-ToMemory0.102005-03-01 21:11:57
CDENTKwiki-Yahoo0.012005-03-02 02:08:37
BADKINSText-ProcessMap0.012005-03-02 02:13:41
BARBIEData-Phrasebook-Loader-XML0.022005-03-02 09:03:24
BARBIEData-Phrasebook-Loader-DBI0.022005-03-02 11:58:33
BARBIECPAN-YACSmoke-Plugin-NNTP0.012005-03-02 12:26:15
BARBIECPAN-YACSmoke-Plugin-NNTPWeb0.012005-03-02 12:29:52
BARBIECPAN-YACSmoke-Plugin-Outlook0.022005-03-02 12:33:51
BARBIECPAN-YACSmoke-Plugin-WebList0.022005-03-02 12:35:57
CNANDORMac-Growl0.612005-03-02 13:15:38
MLEHMANNDBIx-SpatialKey0.0312005-03-03 12:53:07
MRAMBERGCatalyst-Plugin-SubRequest0.012005-03-03 16:35:37
KERBERUSLinux-Distribution0.012005-03-03 19:00:10
ANONWBWWW-Patent-Page0.012005-03-03 22:23:51
BLAIRPosy-Plugin-Google0.12005-03-03 22:53:01
BLAIRPosy-Plugin-ShortLinks0.12005-03-03 22:55:16
BLAIRPosy-Plugin-Log4perl0.12005-03-03 22:55:34
BLAIRPosy-Plugin-Meta0.12005-03-03 22:55:54
BLAIRPosy-Plugin-Meta-Links0.12005-03-03 22:56:14
BLAIRPosy-Plugin-Meta-Via0.12005-03-03 22:56:32
THILOCGI-Application-Plugin-AutoRunmode0.042005-03-04 01:59:51
NEELYData-Validate-IP0.022005-03-04 11:46:50
MCMAHONTest-XML-Simple0.012005-03-04 14:51:19
NEELYData-Validate-Domain0.012005-03-04 15:06:34
DPCHRISTMath-TriangularNumbers-r0_022005-03-04 16:32:40
SAPERBot-MetaSyntactic0.012005-03-04 19:33:19
CLACOAxKit-XSP-Currency0.022005-03-04 20:20:40
VVUBBDB-Export0.0082005-03-05 16:22:12
DJRClass-CSV1.022005-03-06 21:49:02
GBROWNNet-EPP-Client0.012005-03-07 06:45:38
DELANEYObject-I18n0.022005-03-07 14:39:36
DDSText-CHM0.012005-03-08 06:53:34
SMUELLERMath-Symbolic-Custom-Contains0.102005-03-08 09:08:41
MSCHWERNShell-Command0.012005-03-08 14:10:37
DSCHWEIConfig-Grammar1.002005-03-08 16:17:30
AHALLNet-MirapointAdmin3.02005-03-08 19:46:57
DAVIDNICOTie-LazyFunction0.012005-03-08 21:03:59
NAUGHTONClass-DBI-Loader-Oracle0.012005-03-09 01:10:28
TSUKAMOTOWWW-Mixi0.262005-03-09 08:57:53
JSIRACUSARose-DB0.012005-03-09 15:35:30
JSIRACUSARose-DB-Object0.012005-03-09 15:37:34
SUEKwiki-Attachments0.102005-03-09 16:49:24
PJACOBSGames-Tournament-BlackJack0.012005-03-09 19:07:25
CLACOFinance-Currency-Convert-WebserviceX0.012005-03-09 21:30:56
GOSHALWP-Protocol-http-SocksChain101.22005-03-10 04:53:38
CLSUNGLingua-ZH-Segment0.012005-03-10 09:11:28
MJPFile-FnMatch0.012005-03-11 00:51:20
TOMSONApache-AxKit-Provider-RDBMS0.012005-03-11 05:05:42
CBOUVIDistributed-Process0.032005-03-11 05:36:01
FAYLANDChina-IdentityCard-Validate0.012005-03-11 06:35:43
JOOONKwiki-URLBlock0.052005-03-11 09:55:57
BBCWx-Perl-FSHandler-UNC1.0072005-03-11 11:03:36
BBCLingua-MSWordSpell1.0102005-03-11 11:07:34
BBCPod-Usage-CGI1.0082005-03-11 11:09:37
MARIOFMRTG-Parse0.012005-03-11 11:13:32
NWCLARKAcme-Steganography-Image-Png0.012005-03-11 19:05:11
SMUELLERMath-SymbolicX-Inline0.012005-03-12 09:40:49
PALANTSyntax-Highlight-Universal0.32005-03-12 18:36:10
BLAIRPosy-Plugin-RSS200.12005-03-12 18:44:03
JESSEDevel-CallTrace1.02005-03-12 20:13:04
MUJIWin32-IIS-RASdialer0.52005-03-12 21:13:13
MAREKRPod-Parser1.302005-03-13 08:56:16
LPALMERData-COW0.012005-03-13 09:20:55
LPALMERPerl6-Attributes0.012005-03-13 10:26:37
TIMAText-Greeking0.12005-03-13 15:10:17
MIKEPOE-Loop-Wx0.012005-03-13 20:19:43
DGLPOE-Component-FastCGI0.12005-03-13 21:16:40
MSCHILLICPAN-Unwind0.012005-03-14 01:27:37
GOSHALWP-Protocol-http-SocksChain1.22005-03-14 01:53:16
TOMYHEROPod-Html-HtmlTree0.902005-03-14 03:17:08
PDENISTest-Strict0.012005-03-14 06:54:35
BBBttylog0.822005-03-14 08:31:12
GDSLPOE-Loop-Kqueue0.022005-03-14 09:38:05
OCTOApache-VimColor1.002005-03-14 11:43:17
JABLKOFilesys-Virtual-DPAP0.012005-03-14 18:37:06
FAYLANDBusiness-CN-IdentityCard0.012005-03-15 04:54:43
JFENALAcme-MetaSyntactic-RefactorCode0.012005-03-15 05:13:25
CPANPERLWWW-Mechanize-Frames0.012005-03-15 16:55:09
IVANBusiness-OnlinePayment-eSelectPlus0.012005-03-16 05:49:56
PSCHOOApache-ProxyConf1.02005-03-16 09:03:00
MAXMMMM-Sylk0.022005-03-16 09:03:17
DBARTHPXP0.1.12005-03-16 09:45:45
ANKCatalyst-View-Mason0.032005-03-16 17:00:38
BTROTTWWW-Blog-Metadata-Icon0.012005-03-16 18:00:05
DMUEYMath-Fibonacci-Phi0.012005-03-16 18:10:23
INGYKwid0.00_012005-03-17 04:54:27
MIYAGAWAWWW-OpenSearch0.012005-03-17 07:47:18
GEOFFTest-Plan0.012005-03-17 13:50:38
WMSZELIGAMath-Random-Brownian0.032005-03-17 15:10:44
PAULVPOE-Loop-Epoll0.012005-03-17 16:34:16
LBROCARDTest-WWW-Mechanize-Catalyst0.292005-03-17 22:48:07
OPIATECGI-Authen-Simple1.02005-03-18 01:11:58
LYOKATOClass-DBI-Plugin-Connection0.012005-03-18 04:56:13
BLUEFEETMath-FitRect0.012005-03-18 13:26:02
GEOTIGERData-Fax0.022005-03-18 14:09:37
STUBNet-MarkLogic-XDBC0.112005-03-18 18:44:11
STURMFile-Format-RIFF0.022005-03-18 22:57:57
SRICatalyst-Helper-Ajax0.012005-03-19 01:24:39
DRRHOWWW-Agent0.032005-03-19 05:12:06
KAAREBusiness-ReportWriter0.032005-03-19 06:19:09
BASANTKcdl02005-03-19 16:34:09
DUNCANDSQL-Routine-SQLBuilder0.162005-03-19 20:12:04
DUNCANDRosetta-Engine-Generic0.162005-03-19 20:12:24
JERESIGNet-DVDProfiler0.022005-03-19 20:39:05
DPAVLINFuse0.052005-03-19 20:43:08
JERESIGNet-Amazon-DVD2IMDB0.022005-03-19 20:48:32
JERESIGNet-Netflix0.022005-03-19 21:06:32
DDICKTest-MockTime0.012005-03-20 02:41:58
CDENTKwiki-Soap-Google0.032005-03-20 06:46:51
SIMONWBot-BasicBot-Pluggable-Module-Fun0.82005-03-20 10:34:11
SIMONWBot-BasicBot-Pluggable-Module-Search0.82005-03-20 10:51:06
SIMONWBot-BasicBot-Pluggable-Module-Network0.82005-03-20 10:55:07
SIMONWBot-BasicBot-Pluggable-Module-Tools0.82005-03-20 11:02:33
SIMONWBot-BasicBot-Pluggable-Module-Weather0.82005-03-20 11:09:53
RRWOModule-Phalanx1000.012005-03-20 17:04:58
MTHURNDevel-Fail-MakefilePL1.0012005-03-20 17:32:45
DDICKNet-SMS-MessageNet0.602005-03-20 21:17:48
SAPERParse-Syslog-Mail0.012005-03-20 21:24:34
DMUEYGD-Image-Thumbnail0.012005-03-20 22:06:47
SPECTRUMsendpas1.02005-03-21 00:30:46
ROSSILaTeX-Authors0.82005-03-22 08:19:18
BRICASGD-Image-Scale2x0.012005-03-22 10:24:51
RRWOCPAN-YACSmoke-Plugin-Phalanx1000.012005-03-22 14:21:31
SRICatalyst-Plugin-Ajax0.012005-03-22 19:39:39
JMCADADBIx-MyPassword0.102005-03-22 22:17:07
GWYNTie-Concurrent0.032005-03-23 02:19:59
GWYNData-Tabular-Dumper0.022005-03-23 02:20:16
MARCUSXML-OPML-SimpleGen0.012005-03-23 07:52:45
MARCUSXML-RSS-FromAtom0.012005-03-23 08:03:08
MARCUSText-Compare0.012005-03-23 08:14:33
JJORETime-Traveler0.012005-03-24 05:07:26
CLACOAxKit-XSP-L10N0.012005-03-24 23:02:44
DAVIEIRAData_Translate0.12005-03-25 00:48:40
FAYLANDLingua-Han-StrokeCount0.012005-03-25 01:15:42
SRSHAHWWW-StreetMap0.102005-03-25 10:00:08
CHIPSPerl6-Subs0.022005-03-25 10:22:54
KWILLIAMSLingua-BrillTagger0.012005-03-25 17:07:58
XANTUSApache-Backend-POE0.012005-03-25 19:23:29
MIYAGAWAText-Emoticon-Yahoo0.012005-03-26 00:40:58
MIYAGAWAKwiki-OpenSearch0.012005-03-26 02:23:52
LBROCARDHTTP-Server-Simple-Kwiki0.292005-03-26 03:52:22
CHOCOLATEClone-Weakref0.012005-03-26 09:03:58
TIMABoulder-Util0.12005-03-26 09:41:18
CHOCOLATEScalar-Util-Numeric0.012005-03-26 10:02:58
CFAERBERGraphics-ColorNames-WWW0.00_00012005-03-26 10:14:23
JIMTBasset1.002005-03-26 16:06:49
WYANTAstro-SpaceTrack0.0032005-03-26 18:55:07
LBROCARDNet-Amazon-AWIS0.292005-03-26 20:31:25
RUBYKATPosy-Plugin-Info0.01012005-03-26 21:29:58
RUBYKATPosy-Plugin-MultiHeader0.012005-03-26 21:56:11
FAYLANDLingua-Han-PinYin0.012005-03-27 03:28:00
GUGODSVK-Churn0.012005-03-27 04:32:55
SRSHAHBusiness-Billing-TMobile-UK0.102005-03-27 11:05:30
SALVASort-Key0.012005-03-27 13:36:10
MSCHILLIModule-Rename0.012005-03-27 21:38:50
PETDANCEList-Cycle0.012005-03-28 00:56:37
RUBYKATPosy-Plugin-MultiEntry0.012005-03-28 02:23:53
KENTAROWebService-Hatena-Fotolife0.012005-03-28 08:19:07
LIOLTemplate-Plugin-HTML-BBCode0.012005-03-28 12:50:01
DANIELRDBIx-AbstractStatement0.092005-03-28 13:39:49
TNGUYENDigest-Pearson1.002005-03-28 18:12:49
TNGUYENDigest-FNV1.002005-03-28 18:13:06
TNGUYENDigest-DJB1.002005-03-28 18:13:24
MIYAGAWAXML-Atom-Lifeblog0.012005-03-29 02:59:26
LBROCARDDevel-ebug0.292005-03-29 08:07:11
MIYAGAWAKwiki-TypeKey0.012005-03-29 14:32:36
TNGUYENDigest-Pearson-PurePerl1.002005-03-29 15:24:35
CDENTKwiki-Raw0.012005-03-30 02:16:47
JJOREData-Postponed0.022005-03-30 03:50:18
MELOPOE-Component-Rendezvous-Publish0.012005-03-30 07:21:46
BAUERBHoof0.012005-03-30 09:29:20
DREEString-OrderedCombination0.022005-03-30 09:42:23
LBROCARDTest-Expect0.292005-03-30 11:12:15
MIYAGAWAKwiki-OpenSearch-Service0.012005-03-30 11:25:52
TIMAClass-ConfigMgr0.12005-03-30 14:29:19
MCEWANText-Embed0.012005-03-30 18:51:58
ONDRStream-Reader0.032005-03-30 23:51:43
GUNNARCGI-UploadEasy0.102005-03-31 10:40:31

New Distributions for April 2005 (202)

AuthorDistributionVersionRelease Date/Time
OLEKOCGI-okTemplate0.012005-04-01 04:13:30
MCGREGOROracle-Sqlldr0.112005-04-01 09:57:38
SRIHTML-Ajax0.012005-04-01 11:34:46
GUGODKwiki-CachedDisplay0.012005-04-01 12:07:01
MOCKBusiness-OnlinePayment-Exact0.012005-04-01 13:48:58
HDIASMail-Salsa0.012005-04-01 14:11:02
PETERHIGraph-Timeline1.12005-04-01 16:26:25
INGYPerldoc0.00_022005-04-02 00:10:58
INGYPerl6-Bible0.102005-04-02 02:19:44
JOHANLWin32-Word-Writer0.012005-04-02 09:53:49
CHOCOLATEScalar-Util-Clone0.012005-04-02 13:41:50
SLANNINGMozilla-DOM0.012005-04-02 15:09:17
HBABCOCKPDL-Graphics-X-Fits0.012005-04-02 17:17:15
MIYAGAWAKwiki-Footnote0.012005-04-02 22:34:29
SAPERModule-ThirdParty0.012005-04-03 05:31:42
ADAMKJavaScript-Librarian0.012005-04-03 05:54:28
INGYFreePAN0.102005-04-03 07:03:58
GUGODFreePAN-SVKMirror0.012005-04-03 07:04:19
GUGODFreePAN-IndexPages0.012005-04-03 07:06:28
KENTAROAcme-MorningMusume0.012005-04-03 09:09:54
ABELTJEWWW-CheckSite0.0132005-04-03 11:35:39
CHRISGames-Go-Image2SGF1.002005-04-04 01:11:28
GUGODKwiki-Simple-Server-HTTP0.012005-04-04 06:20:23
GUGODSpork-S50.012005-04-04 11:27:37
MFENTONTimeConvert0.52005-04-04 13:29:04
CDENTKwiki-Trackback0.012005-04-05 01:35:29
IAMCALAcme-Python0.012005-04-05 16:19:23
MLEHMANNSys-FreezeThaw0.012005-04-05 20:10:27
GUGODAcme-NumericMethod0.012005-04-05 22:08:35
KWILLIAMSProbe-Perl0.012005-04-05 23:49:00
DLANDTie-Cycle-Sinewave0.012005-04-06 06:00:57
MERLYNCGI-Prototype-Mecha0.102005-04-06 13:55:28
DMUEYDigest-MD5-File0.012005-04-06 16:40:26
MARKPASCXML-Atom-Filter0.012005-04-06 20:22:15
DOOMGraphViz-DBI-General0.12005-04-06 20:25:49
RRWOAcme-AutoColor0.012005-04-07 12:08:36
DERMOTNumber-Phone-IE0.12005-04-07 13:36:04
DMCBRIDECache-Repository0.012005-04-07 15:35:39
ADAMKThreatNet-DATN20040.012005-04-08 02:55:39
NKHData-TreeDumper-Renderer-GTK0.012005-04-08 10:06:22
FLORAGtk2-Phat0.012005-04-08 10:46:00
DLANDAcme-DonMartin0.012005-04-08 13:29:50
BSMITHPOE-Session-YieldCC0.012005-04-08 16:20:57
MCMAHONTest-Tail-Multi0.012005-04-08 17:39:03
RRWOMozilla-Backup0.022005-04-08 23:34:12
TILLYClass-AutoloadCAN0.012005-04-09 07:31:51
TBONECGI-Prototype-Docs-Resources0.012005-04-09 21:48:49
SRSHAHConfig-MachineInfo0.012005-04-10 05:02:59
CHOLETTemplate-Multilingual0.012005-04-10 13:00:46
BILLNConfig-Cascade0.012005-04-10 14:15:43
TJBYRNEPerlActor0.012005-04-10 14:37:03
JREDEvent-RPC0.822005-04-10 17:34:48
HEIKOKText-MultiPhone0.012005-04-11 02:37:37
AJOLMATree-R0.012005-04-11 03:34:28
AJOLMAGeo-Shapelib0.142005-04-11 04:25:27
STEVANTree-Simple-SAX0.012005-04-11 12:01:42
LBROCARDParse-BACKPAN-Packages0.292005-04-11 17:03:15
DROLSKYLog-Dispatch-Email-EmailSend0.012005-04-11 17:20:09
CHOCOLATEScope-Guard0.012005-04-11 19:41:41
CHOCOLATEGoto-Cached0.012005-04-11 21:11:01
BSHANKSperl-Wiki-Gateway0.001992005-04-12 05:24:34
SALVAScalar-Quote0.222005-04-12 05:56:23
CLSUNGText-Sentence-Alignment0.012005-04-12 06:03:15
SHLOMIFXML-CompareML0.2.02005-04-12 08:12:16
MAKAMAKAJSON0.92005-04-12 08:41:09
MINGYILIUBio-ASN1-EntrezGene1.062005-04-12 16:42:39
TPEDERSEWordNet-SenseRelate-AllWords0.042005-04-12 23:08:14
PBOETTCHARCv21.052005-04-13 06:48:53
JMERELOMP3-Podcast0.012005-04-13 07:04:11
RETOHMy-Crypt0.82.022005-04-13 12:45:54
OFEYAIKONGtk2-Ex-ICal-Recur0.012005-04-14 00:32:17
SRIHTML-Prototype1.102005-04-14 16:33:35
SRICatalyst-Plugin-Prototype0.012005-04-14 16:33:51
GRYPHONLingua-ManagementSpeak0.012005-04-14 17:07:43
PHCOTEDevel-Monitor0.92005-04-14 22:11:06
MCURTISEPEG0.012005-04-15 01:33:04
ADAMKDecorator0.012005-04-15 02:13:21
OSFAMERONTie-Hash-StructKeyed0.032005-04-15 03:53:32
PEDWARDSNet-SMS-BulkSMS1.002005-04-15 04:49:48
RETOHCrypt-Lite0.82.052005-04-15 04:59:04
CCOLBOURNText-StripAccents0.12005-04-15 06:18:24
GUGODSVK-Simple0.012005-04-15 07:19:39
SIMONWBot-Infobot0.82005-04-15 09:36:47
SRICatalyst-Plugin-Pluggable0.022005-04-15 12:51:44
RHESADBIx-Counter0.012005-04-15 16:19:25
NUFFINTest-TAP-Model0.022005-04-15 19:28:19
NUFFINTest-TAP-HTMLMatrix0.012005-04-15 19:30:10
RRWOParams-Smart0.012005-04-15 19:35:11
CHROMATICClass-StorageFactory1.02005-04-15 21:47:32
STEPHENVideo-Xine0.012005-04-15 22:14:59
JMCADAXML-RAI-Enclosure1.002005-04-16 00:11:57
RUBYKATPosy-Plugin-EditInfo0.01022005-04-16 03:25:44
ADAMKClass-Adapter0.022005-04-16 08:53:22
KIRSLEGames-Multiplayer-Manager1.002005-04-16 12:37:42
KIRSLEChatbot-Alpha1.322005-04-16 12:59:56
KIRSLENet-YIM0.012005-04-16 21:02:35
RSAVAGESearch-InvertedIndex-Simple-BerkeleyDB1.002005-04-16 22:18:44
MALETINTeamspeak0.32005-04-16 22:23:50
MCURTISImage-EPEG0.022005-04-17 01:09:02
SRSHAHProbe-MachineInfo0.022005-04-17 02:16:39
SHLOMIFBundle-Sites-BetterScm0.2.02005-04-17 05:38:09
ECASTILLADBIx-PasswordIniFile1.12005-04-17 06:55:38
SRICatalyst-Plugin-XMLRPC0.012005-04-17 11:47:02
SRICatalyst-Plugin-Textile0.012005-04-17 11:47:20
JKEENANTie-Filehandle-Preempt-Stdin0.012005-04-17 12:02:35
EMARTINOpenGuides-Statistics12005-04-17 16:16:52
MARTIJNPOE-Session-GladeXML20.3.02005-04-18 04:00:49
STILLWELLData-Eacherator0.012005-04-18 16:34:49
RMBARKERFile-Rename0.012005-04-19 10:13:52
KARASIKRegexp-Log-DateRange0.012005-04-19 11:39:33
SHLOMIFHTML-Latemp-GenMakeHelpers0.1.22005-04-19 13:26:00
KINGKwiki-Theme-GreenHouse0.012005-04-19 15:29:15
JENSLFile-DirWalk0.12005-04-19 15:29:36
ADAMKPerl-MinimumVersion0.012005-04-20 00:57:25
LBOTTELApache-FormatLog0.012005-04-20 07:07:00
FRIEDOData-Traverse0.012005-04-20 08:05:53
OPIApache2-ClickPath1.32005-04-20 08:39:32
SPADKINSApp-Build0.102005-04-20 11:22:45
MARTIJNGlade2-Widget0.12005-04-20 12:33:41
MCURTISImage-Epeg0.032005-04-20 12:49:12
DJERIUSCIAO-Lib-Param0.012005-04-20 15:47:55
DJERIUSCIAO-Lib-StackIO0.022005-04-20 15:48:15
DJERIUSAstro-FITS-CFITSIO-Simple0.032005-04-20 15:50:40
MSCHILLIArchive-Tar-Wrapper0.022005-04-21 03:09:05
INGYTest-Chunks0.102005-04-21 04:05:54
KORSANILog-Funlog-Lang0.12005-04-21 06:14:28
RHESACGI-Application-Plugin-CompressGzip0.012005-04-21 09:22:28
SIMONWLinux-Input-Info0.12005-04-21 10:05:50
GKNAUSSWebService-Upcoming0.022005-04-22 01:49:50
ADAMKParams-Coerce0.082005-04-22 03:22:26
ADAMKParams-Util0.012005-04-22 04:18:16
GEOTIGERCGI-Getopt0.12005-04-22 10:57:00
DMUEYNet-FTP-File0.012005-04-22 12:29:17
CLOTHOCAM-DBF1.012005-04-22 14:38:43
CLOTHOCAM-PDF0.992005-04-22 14:52:24
GEOTIGEROracle-Trigger0.12005-04-22 15:04:05
CLOTHOCAM-XML1.122005-04-22 23:23:33
CLOTHOCAM-SQLManager1.132005-04-22 23:30:22
CLOTHOCAM-SQLObject1.012005-04-22 23:38:35
CLOTHOCAM-Session1.022005-04-22 23:45:45
CLOTHOCAM-SOAPApp1.052005-04-23 00:06:27
BILLHCrypt-AppleTwoFish0.012005-04-23 00:06:43
CLOTHOCAM-SOAPApp-Std1.032005-04-23 00:11:46
CLOTHOCAM-SOAPClient1.132005-04-23 00:21:45
CLOTHOCAM-UserApp1.012005-04-23 01:08:13
AJOLMAGtk2-Ex-Geo0.312005-04-23 04:21:17
AJOLMAGeo-Raster0.312005-04-23 04:23:14
DUPUISARNslackget100.012005-04-23 07:31:22
APOCALPOE-Component-Lightspeed0.012005-04-23 09:45:51
PAUAMMAGeo-PostalAddress0.022005-04-23 12:51:03
AREGGIORIEmail-MIME-XMTP0.322005-04-24 08:34:48
RPAGITSCHWin32-File-Summary0.012005-04-24 14:36:18
DOWENSXML-Parser-Wrapper0.12005-04-24 16:26:51
PMEVZEKNet-DRI0.102005-04-24 17:47:19
MIYAGAWATime-Duration-ja0.012005-04-24 21:45:19
GWILLIAMSRDF-Query1.0122005-04-24 22:39:40
BILLHAudio-M4P0.062005-04-25 00:33:15
SMUELLERAlgorithm-CurveFit1.002005-04-25 12:15:59
TSCHGStreamer0.012005-04-25 15:18:00
KINGWebService-NoPaste0.012005-04-25 15:42:44
CSAPGHandler0.72005-04-25 20:11:32
IMACATreslog2.99012005-04-25 21:34:24
DKASAKGtk2-Ex-DBI0.82005-04-26 07:29:32
MRAMBERGPDF-Tk0.012005-04-26 10:12:52
MATISSEApache2-AuthCookieDBI2.032005-04-26 12:32:21
IWOODHEADSeq0.252005-04-26 15:59:35
COSIMOpgtop0.022005-04-26 16:50:48
MRAMBERGCatalyst-Plugin-Browser0.012005-04-26 19:14:46
MRAMBERGCatalyst-Plugin-Observe0.012005-04-26 19:15:07
MRAMBERGCatalyst-Plugin-Unicode0.12005-04-26 19:17:12
SRICatalyst-Plugin-Cache-FastMmap0.52005-04-26 19:39:50
SRICatalyst-Plugin-Cache-FileCache0.52005-04-26 19:40:06
SRICatalyst-Plugin-Cache-Memcached0.52005-04-26 19:40:23
DKASAKPDF-ReportWriter0.22005-04-26 20:00:33
JESTERCatalyst-Model-CDBI-Plain0.012005-04-26 23:04:30
ONDRPCGI0.272005-04-27 05:03:56
RPAGITSCHWin32-Net-Session0.012005-04-27 07:36:05
EVDBTest-Fixme0.012005-04-27 09:02:39
SHLOMIFPDL-Lib-Linear-Solve0.0022005-04-27 10:19:27
MIRKNet-Z3950-RadioMARC0.022005-04-27 11:16:14
TJBYRNETest-C2FIT0.012005-04-27 12:21:45
DAVEBAIRDClass-DBI-Plugin-AutoUntaint0.012005-04-27 12:27:32
DAVEBAIRDMaypole-Plugin-AutoUntaint0.012005-04-27 12:32:50
SALVASort-Key-DateTime0.022005-04-27 13:18:30
SRICatalyst-Plugin-Compress-Zlib0.012005-04-27 14:20:45
SRICatalyst-View-HTML-Template0.012005-04-27 14:22:42
SRICatalyst-View-Petal0.012005-04-27 14:23:02
SRICatalyst-Plugin-Compress-Bzip20.012005-04-27 14:23:20
AGRUNDMACatalyst-Plugin-Authentication-LDAP0.012005-04-27 17:24:57
SPEEVESApache2-AuthenNTLM0.012005-04-27 21:05:44
SRICatalyst-Model-CDBI-Sweet0.012005-04-27 23:04:10
SHLOMIFHTML-Latemp-News0.1.32005-04-28 02:36:12
JWACHXML-FXN0.012005-04-28 04:02:48
SHLOMIFBundle-Latemp0.2.02005-04-28 05:31:43
MGRAHAMConfig-Context0.052005-04-28 06:27:43
SIMONWFile-Mork0.12005-04-28 16:57:26
GAMData-Tabular0.21-eo2005-04-28 23:29:39
GUGODKwiki-Search-Spotlight0.012005-04-29 07:48:34
GEOTIGEROracle-DML-Common0.22005-04-29 09:52:21
SHLOMIFHTML-Latemp-NavLinks-GenHtml0.1.52005-04-29 16:00:55
DAVEBAIRDCGI-Untaint-country0.12005-04-29 17:03:57
ADAMKHTML-Email-Obfuscate0.022005-04-30 02:42:31

New Distributions for May 2005 (182)

AuthorDistributionVersionRelease Date/Time
ADAMKThreatNet-Filter0.012005-05-01 01:21:55
MRAMBERGCatalyst-Plugin-Geography0.012005-05-01 07:35:42
RRWOPod-Readme0.012005-05-01 09:59:59
TERHECHTESpreadsheet-ReadSXC0.012005-05-01 12:09:56
KINGClipboard0.012005-05-01 13:19:57
MLAWRENXML-API0.032005-05-02 05:27:24
REEDFISHMenus1.012005-05-02 08:40:35
MLEHMANNFile-Defrag0.032005-05-02 18:20:17
SAMUELLText-Toalpha0.012005-05-02 23:14:47
LAXENKwiki-PrinterFriendly0.102005-05-03 00:38:26
OPIApache2-ModSSL0.032005-05-03 04:59:24
SALVAURI-sftp0.012005-05-03 07:33:42
SNOWHAREText-FixEOL1.002005-05-03 09:55:52
MRAMBERGCatalyst-View-PSP0.012005-05-03 11:26:07
CFRANKSPerl6-Junction1.002005-05-03 12:02:00
SALVANet-SFTP-Foreign0.512005-05-03 12:16:48
SALVALWP-Protocol-sftp0.012005-05-03 12:29:47
SREZICTimex6.242005-05-03 15:34:27
SRICatalyst-Plugin-Singleton0.012005-05-03 17:06:14
WAIDERFinance-Bank-IE0.032005-05-03 18:25:26
AROTHImage-Magick-Brand0.012005-05-03 19:11:44
SHERZODRHTML-Table-Compiler0.012005-05-03 22:44:51
MGRAHAMCGI-Application-Plugin-Config-Context0.072005-05-04 04:49:47
SPEEVESApache2-AuthNetLDAP0.012005-05-04 07:29:05
TIMBRODYLogfile-EPrints1.002005-05-04 07:54:17
OPITZYUM-Config1.32005-05-04 08:20:15
OPITZConfig-YUM1.32005-05-04 08:41:19
SINISTERDBD-Log0.212005-05-04 11:29:40
STEVANConfig-Constants0.012005-05-04 11:51:22
OPITZRPM2-LocalInstalled1.22005-05-04 13:13:17
SMEISNERSOAP-Lite-InstanceExporter0.012005-05-04 14:00:44
AROTHImage-Magick-Info0.0.12005-05-04 14:50:08
REEDFISHTerm-Menus1.042005-05-04 15:19:28
PGUZISWWW-Postini0.012005-05-04 18:30:21
MRAMBERGNet-Whois-Norid0.012005-05-05 06:08:57
JMEHNLENet-Address-IPv4-Local0.122005-05-05 09:12:14
BILLHLWP-UserAgent-iTMS_Client0.01_012005-05-05 23:30:40
CDRAKEWin32-ShutDown0.012005-05-06 01:19:56
XERNCGI-QuickApp0.012005-05-06 03:15:53
BBCAny-Template1.0112005-05-06 08:48:32
CFRANKSenum-hash1.002005-05-06 11:03:54
HARDAKERGetopt-Long-GUI0.12005-05-06 15:14:42
ITUBChemistry-3DBuilder0.102005-05-06 18:37:42
BAUERBTemplate-Plugin-HTML-Prototype0.012005-05-06 19:28:43
INGYKwiki-Theme-Selectable0.102005-05-06 21:36:29
GUGODRunApp-Simple0.012005-05-07 06:08:39
ADAMKThreatNet-IRC0.012005-05-07 06:25:32
CEESHEKData-FormValidator-Filters-Image0.12005-05-07 21:34:03
SRIHAClass-DBI-Plugin-DeepAbstractSearch0.012005-05-08 00:08:46
GUGODSpork-S5ThemeRedSimple0.012005-05-08 06:53:55
POLETTIXTrafficModeling-ErlangB0.012005-05-08 16:25:30
SHLOMIFWWW-OpenSVN0.1.22005-05-08 16:53:47
LTBOOTSgenomics.012005-05-08 19:42:28
MSCHILLIGames-Puzzles-SendMoreMoney0.012005-05-09 01:40:30
RTFIREFLYLocale-Framework-GettextXML0.012005-05-09 12:41:28
SALVASort-Key-Merger0.012005-05-09 16:04:16
OLAFNet-DNS-TestNS1.062005-05-10 05:11:20
OPITZDir-List1.22005-05-10 05:18:59
ADAMKNet-IP-Resolver0.012005-05-10 05:38:34
PELAGICList-Rotation0.0052005-05-10 08:36:38
SDERLEGeo-GNIS0.012005-05-10 09:46:15
XANTUSDevice-MX2400.042005-05-10 14:47:08
CRENZMusic-Harmonics0.012005-05-11 11:32:40
NWCLARKDevel-Arena0.012005-05-11 18:01:31
ADAMKThreatNet-Bot-AmmoBot0.012005-05-11 22:06:39
CHOCOLATEShell-Autobox0.012005-05-11 22:36:54
SRIHAClass-DBI-Plugin-DeepAbstractSearchPager0.012005-05-12 01:32:03
MAKAMAKAText-CSV_PP1.002005-05-12 06:18:26
RUBYKATPosy-Plugin-StoryInfo0.022005-05-12 07:51:22
HMBRANDSpreadsheet-Read0.012005-05-12 09:18:15
AZJADFTREFile-Operator1.0.02005-05-12 11:24:35
POLETTIXMath-Telephony-ErlangB0.022005-05-12 19:14:17
JKEENANIO-Capture-Extended0.082005-05-12 21:48:48
GEOTIGEROracle-Schema0.012005-05-12 22:23:59
RGARCIASub-Identify0.012005-05-13 05:33:42
PEDWARDSclucene0.9.0a2005-05-13 11:06:26
PEDWARDSFulltextSearch-CLucene1.002005-05-13 11:08:37
GBARRScalar-List-Util1.152005-05-13 12:21:53
DAVIDNICOTie-Function0.022005-05-13 16:40:21
DCONWAYIO-Interactive0.012005-05-14 00:57:21
DUNNIGANJTk-ChooseDate0.32005-05-14 02:12:32
DCONWAYIO-InSitu0.0.12005-05-14 02:22:32
KIRSLENet-CyanChat0.012005-05-14 15:25:43
JGARVINString-ShowHTMLDiff0.012005-05-14 18:51:14
NUFFINPackage-Relative0.012005-05-15 02:51:52
CHAOSLAWPod-BBCode1.52005-05-15 10:00:10
VPARSEVALAudio-MPC0.012005-05-16 04:55:53
TOBYGeo-Coordinates-OSGB1.062005-05-16 11:09:56
OPIApache2-ShowStatus0.022005-05-16 11:11:56
SPADKINSBusiness-Travel-OTA0.502005-05-16 16:56:18
ITUBChemistry-File-VRML0.102005-05-16 17:17:49
CRENZMIDI-Morph0.012005-05-16 19:09:03
PEDWARDSCLucene1.002005-05-16 19:11:15
CRENZNet-OpenSoundControl0.052005-05-16 19:22:02
OFEYAIKONGtk2-Ex-Graph-GD0.012005-05-17 02:51:48
SDERLEGeo-StreetAddress-US0.992005-05-17 10:24:29
RRWOFile-HomeDir-Win320.012005-05-17 13:50:31
SAPERDevel-SimpleTrace0.042005-05-17 19:11:47
ROBLEACHIO-Pipe-Producer1.52005-05-17 19:34:27
DAVEBAIRDMaypole-Plugin-Session0.012005-05-18 11:57:17
DAVECROSSNet-Backpack0.012005-05-18 17:10:48
MGRAHAMCGI-Application-Plugin-AnyTemplate0.012005-05-18 17:36:56
EDWARDWWW-NationalRail0.12005-05-18 18:01:54
WONKOCGI-Application-Search0.012005-05-18 21:14:18
DCONWAYClass-Std-Utils0.0.12005-05-19 01:09:57
MHOSKENFont-TTF-Scripts0.32005-05-19 01:16:02
DCONWAYSub-Installer0.0.12005-05-19 08:22:09
BORISZPod-Simple-Text-Termcap0.012005-05-19 10:43:10
HANENKAMPFile-System1.112005-05-19 11:05:39
RKOBESGD-Image-CopyIFS0.252005-05-19 11:55:11
PETERHIData-RandomPerson0.12005-05-19 15:42:23
NEXENOzDB0.0.12005-05-19 16:05:51
JAEPSTEINMassSpec-CUtilities0.012005-05-19 16:10:54
RCONOVERCatalyst-Plugin-Session-Flex0.012005-05-19 18:18:23
INGYKwiki-PoweredBy0.102005-05-19 22:30:44
DMAKIXango0.062005-05-20 03:12:04
BOOKGames-Mastermind0.012005-05-20 08:04:12
BINGOSPOE-Component-Win32-Service0.012005-05-20 12:56:59
STEVENHNet-TL10.012005-05-20 16:57:40
RALAMOSMParse-Nessus-Plugin0.012005-05-20 17:43:31
LBROCARDNet-OpenDHT0.292005-05-20 18:06:34
BROQSwitch-Perlish1.0.02005-05-20 22:54:08
BRADFITZLWPx-ParanoidAgent1.002005-05-21 01:31:45
DCONWAYContextual-Return0.0.12005-05-21 08:39:30
RPAULLWP-Protocol-virtual0.012005-05-21 19:22:29
DCONWAYModule-Starter-PBP0.0.22005-05-22 08:42:46
BRADFITZNet-OpenID-Consumer0.022005-05-22 23:02:59
IOANNISPerlIO-via-Skip0.012005-05-23 00:16:44
SALVARegexp-Log-WMS0.022005-05-23 05:05:59
SALVARegexp-Log-RealServer0.022005-05-23 05:07:56
ULTRADMPOE-Component-Client-SMTP0.012005-05-23 11:03:40
GROUSSEDict-FSA0.12005-05-23 11:39:16
DARNOLDDBD-Amazon0.102005-05-23 15:41:48
BCEVCApp-Modular0.1.22005-05-23 19:00:44
BRADFITZNet-OpenID-Server0.012005-05-23 21:15:14
DKASAKGtk2-Ex-Datasheet-DBI0.32005-05-23 21:37:04
ADAMKTemplate-Plugin-NakedBody0.012005-05-24 00:58:28
OPIPerl-AfterFork0.012005-05-24 05:46:54
DAVEBAIRDClass-DBI-Plugin-Backtickify0.012005-05-24 10:07:51
DAVEBAIRDMaypole-Virtual-Application0.012005-05-24 10:29:23
MRAMBERGCatalyst-Engine-Zeus0.012005-05-24 15:25:19
MRAMBERGCatalyst-Engine-Server0.012005-05-24 15:27:14
MRAMBERGCatalyst-Engine-HTTP-POE0.012005-05-24 16:16:40
MRAMBERGCatalyst-Plugin-Upload-MD50.012005-05-24 17:47:36
EFOLLEYClass-DataStore0.052005-05-24 19:38:47
EFOLLEYHTML-CheckArgs0.112005-05-24 19:40:58
EFOLLEYHTML-FormatData0.102005-05-24 19:43:03
ADAMKPerl-Squish0.012005-05-25 06:47:16
GEOFFWebService-CaptchasDotNet0.012005-05-25 14:27:34
DCONWAYClass-Std0.0.22005-05-25 18:32:58
DCONWAYConfig-Std0.0.22005-05-25 18:35:02
GUGODKwiki-BroadcastMessage0.012005-05-25 21:05:05
OFEYAIKONGtk2-Ex-TreeMap0.012005-05-26 02:54:16
DCONWAYLog-StdLog0.0.22005-05-26 03:09:34
CASIANOAlgorithm-Knap01DP0.202005-05-26 14:37:43
GROUSSELingua-MAF0.12005-05-27 08:16:17
DAVEBAIRDCGI-Untaint-set0.012005-05-27 16:11:39
TPEDERSEWordNet-SenseRelate-WordToSet0.012005-05-27 21:38:57
BREEGSTERAudio-Play-MPG3210.0012005-05-28 00:44:51
LBROCARDMealMaster0.282005-05-28 06:04:10
LBROCARDSearch-Mousse0.292005-05-28 09:45:50
SRIHASpreadsheet-WriteExcel-Worksheet-SheetProtection0.012005-05-28 15:00:27
SMIFFYHTML-XHTML-Lite0.012005-05-28 22:35:34
PDENISIRC-Bot-Hangman0.12005-05-28 22:58:26
SRIClass-DBI-Sweet0.012005-05-28 23:09:58
BALESHINet-WWD1.002005-05-29 05:41:57
EIKEGperl-tutorial-DE2.022005-05-29 11:13:06
ICRFtext-highlight0.042005-05-29 16:17:58
BRYCESOAP-Lite-Utility0.012005-05-29 17:19:28
CREAMYGSort-MonsterSort0.012005-05-29 17:26:11
INGYKwiki-Ajax-Toolman0.102005-05-29 18:25:43
ADAMKTest-Object0.012005-05-30 02:06:15
DCONWAYPerl6-Builtins0.0.22005-05-30 02:09:41
DMAKISenna0.02_032005-05-30 07:03:19
TALEHTML-Template-HTX0.072005-05-30 10:44:41
SALVAMemchmark0.012005-05-30 20:54:30
CREAMYGSort-External0.012005-05-30 22:05:12
CDRAKEDevice-LabJack0.012005-05-31 09:56:09
SUEKwiki-ListPages0.102005-05-31 11:51:45
OPIPerl-AtEndOfScope0.012005-05-31 14:30:12
JWHEELERShipping-CanadaPost1.002005-05-31 16:12:17
SAMTREGARData-Phrasebook-Loader-ApacheFormat1.002005-05-31 16:53:53

New Distributions for June 2005 (181)

AuthorDistributionVersionRelease Date/Time
KENXML-ApacheFOP0.012005-06-01 11:19:27
JOUKEWx-Perl-CheckBoxWizardPage0.012005-06-01 12:01:29
MDXIBundle-Olive1.02005-06-01 12:43:12
JOUKEWx-Perl-HtmlWizardPage0.012005-06-01 13:00:16
IAMCALParse-EBNF1.012005-06-01 16:00:53
AFRYERTuxedo2.062005-06-02 00:41:01
BREEGSTERAudio-Daemon-MPG3210.0012005-06-02 00:54:13
MBARBONCGI-Session-Hidden0.012005-06-02 02:44:19
BINGOSPOE-Component-Win32-ChangeNotify0.012005-06-02 10:05:48
GUGODKwiki-Theme-JustContent0.102005-06-03 05:04:24
JASONKGoogle-SiteMap0.012005-06-03 16:58:34
JASONKWWW-Google-SiteMap0.022005-06-03 17:11:47
ZOOLEIKASVG-Shapefile0.012005-06-03 17:20:03
HARRYText-Convert-ToImage02005-06-03 19:08:18
STEPHENX11-FullScreen0.012005-06-04 00:40:20
STEPHENVideo-PlaybackMachine0.022005-06-04 00:57:10
JWHEELERBusiness-CanadaPost1.012005-06-04 11:10:56
AGRUNDMACatalyst-Plugin-PageCache0.012005-06-04 12:17:40
ADAMKVCS-CSync0.012005-06-04 14:37:42
JFENALSolaris-Disk-SVM-Graph0.022005-06-04 16:45:18
LBROCARDHTML-Fraction0.292005-06-04 17:40:22
INGYTest-Less0.102005-06-05 20:48:37
MLAWRENNCGI0.012005-06-06 11:21:37
CLKAOApp-CLI0.012005-06-06 14:31:46
ASARIHIPC-Door0.112005-06-07 09:14:38
FERREIRAbiz-br0.00_012005-06-07 11:59:53
SHLOMIFCatalyst-Plugin-SanitizeUrl0.2.02005-06-07 15:54:17
BAUERBClass-Method-Auto1.002005-06-07 18:55:06
CREAMYGSearch-Kinosearch0.012005-06-07 19:35:37
YAPPOAcme-Monta0.012005-06-08 10:58:53
RKOBESPAR-WebStart0.112005-06-08 12:09:14
GUIMARDApache-Session-Ipc0.012005-06-08 14:42:53
DORIANApache2-TrapSubRequest0.022005-06-08 16:04:04
AGRUNDMACatalyst-Plugin-RequireSSL0.012005-06-08 23:46:52
BINGOSPOE-Component-AI-MegaHAL0.892005-06-09 06:10:31
VIYHTML-Template-Pro0.382005-06-09 07:07:59
ELIZABETHSys-RunAlone0.012005-06-09 07:17:39
FERREIRABusiness-BR-Ids0.00_042005-06-09 09:26:26
DAVEBAIRDClass-DBI-FormBuilder0.12005-06-09 17:47:31
DAVEBAIRDMaypole-FormBuilder0.12005-06-09 17:58:28
DAVEBAIRDMaypole-Plugin-QuickTable0.12005-06-09 18:12:19
CSAPostgres-Handler1.12005-06-09 22:19:01
SPEEVESApache2-AuthenSmb0.012005-06-10 06:06:12
BEPPUTerm-Caca0.9_32005-06-10 08:23:49
RJOHNSONCase0.0.22005-06-10 10:33:31
CSAPostgres-Handler-HTML0.52005-06-10 13:11:42
DORIANApache-LogF0.012005-06-11 13:45:21
JOUKEWx-Perl-RadioBoxWizardPage0.012005-06-11 16:00:33
BNEGRAONet-FTP-Versioning0.012005-06-11 19:47:40
PIPTk-AbstractCanvas1.0.56BHMOt2005-06-11 20:28:13
DORIANApache-DebugLog0.012005-06-12 00:17:07
RSAVAGEImage-Magick-Chart1.002005-06-12 01:00:45
INGYTest-Base0.402005-06-12 05:42:47
RSAVAGEData-PABX-ParseLex1.002005-06-12 06:35:30
IVORWFilesys-Type0.012005-06-12 12:20:31
JACKSONMCrypt-X5090.012005-06-12 15:27:01
TPEDERSEWordNet-SenseRelate-TargetWord0.062005-06-13 03:00:04
LYOKATOTemplate-Plugin-Monta0.012005-06-13 10:02:52
STIGModule-Build-Kwalitee0.102005-06-13 11:18:19
DMAKIXML-RSS-LibXML0.01_012005-06-13 23:06:55
JOUKEWx-Perl-Imagick0.012005-06-14 04:07:11
ONDRpersonal0.222005-06-14 06:15:19
SALVAassertions0.032005-06-14 07:25:53
FERREIRAModule-Which0.012005-06-14 16:43:55
KEVINRRT-Extension-MergeUsers0.012005-06-14 23:13:23
RKOBESApache2-SOAP0.72005-06-15 01:02:43
BBCFile-Policy1.0052005-06-15 09:23:24
GWOLFUser-Simple0.82005-06-15 13:37:44
KEVINRRT-Extension-ExtractSubjectTagOnTransaction0.012005-06-15 16:34:44
GOMORDBIx-SQLite-Simple0.302005-06-15 16:46:42
KEVINRRT-Extension-AddAdminCcsOnQueueChange0.022005-06-15 17:56:03
CHROMATICModule-Build-TestReporter1.002005-06-15 22:29:06
LLTNet-DNS-Check0.442005-06-16 04:24:13
JMAHONEYObject-Generic0.022005-06-16 11:39:06
JMAHONEYObject-Generic-Session0.022005-06-16 11:39:21
NFMNUNESFlickr-Tools0.012005-06-16 12:34:42
STUBNet-Safari0.022005-06-16 22:05:06
NJHWebSphere-MQTT-Client0.012005-06-17 11:26:01
JAMESClass-DBI-Plugin-Calendar0.142005-06-17 11:46:58
JAMESClass-DBI-Loader-mysql-Grok0.152005-06-17 12:30:39
KRALNet-FTPSSL0.012005-06-17 17:08:54
JDHEDDENMath-Random-MT-Net1.002005-06-17 17:41:04
NILSONSFJsubs-parallel0.042005-06-17 23:28:29
LYOKATOPod-ProjectDocs0.022005-06-18 05:43:15
PKENTSet-Partition-SimilarValues1.0032005-06-18 22:26:24
DMAKIFile-MMagic-XS0.012005-06-19 05:08:06
CRENZMusic-Gestalt0.012005-06-19 06:55:47
BAUERBCatalyst-Plugin-FileConfig0.012005-06-19 07:23:44
ADULAUFile-HStore0.012005-06-19 09:39:42
BENAZZODict-Main1.02005-06-19 13:22:17
DMAKIClass-DBI-Plugin-Senna0.012005-06-19 23:15:29
PKENTSchedule-Advisory1.0022005-06-20 13:03:53
GLASSERTest-HTTP-Server-Simple0.012005-06-20 15:32:05
GOMORNet-SinFP0.922005-06-20 16:00:03
RHESACGI-Application-Plugin-HtmlTidy0.012005-06-20 16:09:03
LUCSTest-Usage0.042005-06-21 00:52:37
NANARDONFile-Find-Object0.0.12005-06-21 12:45:53
BAUERBCatalyst-Plugin-Config-YAML0.032005-06-21 14:19:35
BENAZZODict-Word1.32005-06-21 15:52:41
BENAZZODict-Db1.32005-06-21 15:54:46
LINSALROBScheduleSGE0.012005-06-21 18:09:58
CMORRISSNC-Manipulator0.12005-06-21 20:20:41
BRADDArchive-Cabinet1.202005-06-22 00:06:44
RCAPUTOPOE-Filter-Snort0.012005-06-22 01:38:32
MIYAGAWAEncode-JP-Mobile0.012005-06-22 03:21:33
AMNESIACGtk2-GladeXML-Simple0.22005-06-22 03:21:56
NJHliblo-perl0.012005-06-22 11:10:11
JDHEDDENMath-Random-MT-Auto1.002005-06-22 12:00:30
CMOORECGI-Application-PageBuilder0.52005-06-22 14:04:12
MCMAHONDevel-Command0.012005-06-22 15:31:19
GLASSERText-Tags0.012005-06-22 15:55:11
KOHLISWordNet-Similarity-Visual02005-06-22 16:35:59
TSIBLEYData-Taxonomy-Tags0.042005-06-22 17:33:51
MRKOFFEECatalyst-Plugin-CDBI-Transaction0.012005-06-22 18:12:47
DBIALACSDP0.12005-06-22 18:13:04
DAVEBAIRDMasonX-Plugin-Compress0.12005-06-22 18:32:18
MNDRIXText-TypingEffort0.012005-06-22 22:24:47
DMAKITie-Senna0.012005-06-22 22:37:47
LBROCARDPerl-Metric-Basic0.292005-06-23 03:37:57
BINGOSPOE-Filter-Zlib1.02005-06-23 04:26:55
BENAZZOLingua-AR-Word1.42005-06-23 06:40:52
BENAZZOLingua-AR-Db1.42005-06-23 06:43:14
LOCATIONGeo-IP2Location1.002005-06-23 07:54:06
MARKFString-Fraction0.202005-06-23 10:04:45
DMAXWELLNetAddr-IP-Obfuscate0.012005-06-23 11:20:49
SHEVEKMail-SPF2.002005-06-23 11:23:04
INGYSpork-Hilite0.102005-06-24 02:34:23
SRICatalyst-Helper-Controller-Scaffold0.012005-06-24 09:02:52
LYOKATOConfig-Tiny-Singleton0.012005-06-24 11:16:28
BINGOSPOE-Component-Win32-EventLog0.812005-06-24 12:50:43
RADCLIFFEVDB-API0.52005-06-24 15:37:49
CDAWSONPodcast-Publisher0.302005-06-24 21:25:49
SHERZODRImage-Resize0.012005-06-25 00:37:43
WONKOCGI-Application-Plugin-ViewSource0.012005-06-25 13:45:50
NUFFINAlgorithm-Dependency-Objects0.012005-06-25 14:03:56
NUFFINVerby0.012005-06-25 16:38:59
PETEKAcme-PETEK-Testkit1.002005-06-25 21:51:51
CMORRISFile-quotas0.12005-06-26 01:29:58
DUNCANDSQL-Routine-SQLParser0.012005-06-26 02:33:07
XERNBio-Medpost0.012005-06-26 06:00:04
ITUBAnnoCPAN0.202005-06-26 08:21:27
ADAMKPerl-Editor0.012005-06-26 12:23:36
NKHDevel-Depend-Cl0.012005-06-26 14:50:10
TELSwikimedia-graph0.082005-06-26 16:10:06
ADRIANWITCurses-UI-Grid0.102005-06-26 16:42:57
MATTDBIND-Config-Parser0.012005-06-26 18:01:37
DMUEYMac-SysProfile0.012005-06-26 21:33:15
RSAVAGEDBIx-Admin-CreateTrivialSchema1.002005-06-27 04:31:48
SALVAClass-StateMachine0.112005-06-27 09:21:23
DPETROVText-Magic2.002005-06-27 14:42:16
GIFFEkahau0.0012005-06-27 15:06:54
SELCOMBSAL3.012005-06-27 18:06:00
JBMEncode-HEBCI0.012005-06-27 22:57:41
CDENTKwiki-FetchRSS0.082005-06-28 02:15:27
CDENTKwiki-PageStats0.052005-06-28 02:39:44
CMOORECGI-Application-Plugin-PageBuilder0.72005-06-28 03:36:50
VLADOCalendar-Schedule0.022005-06-28 07:10:15
ADAMKPerl-Editor-Plugin-Squish0.012005-06-28 10:56:54
MCMAHONWWW-Mechanize-Pluggable0.012005-06-28 11:33:10
GLASSERHTTP-Server-Simple-Recorder0.012005-06-28 15:46:42
LBROCARDHTML-TagCloud0.292005-06-28 18:08:03
POLETTIXMath-Telephony-ErlangC0.012005-06-28 21:42:11
NKHPerlBuildSystem0.30_12005-06-29 02:40:27
AUGUSTOTime-Skew0.012005-06-29 06:00:27
SALVAClass-SingletonProxy0.012005-06-29 06:45:17
LYOKATOCatalyst-Plugin-Charsets-Japanese0.012005-06-29 07:55:35
JWACHxDash1.002005-06-29 11:12:41
DENYSVClass-Frame1.02005-06-29 11:16:45
HOCHSTENXML-Tape0.012005-06-29 11:36:27
GUIMARDLemonldap-NG-Handler0.012005-06-29 14:42:29
GUIMARDLemonldap-NG-Portal0.012005-06-29 14:44:50
CDENTKwiki-Orphans0.102005-06-29 14:45:12
CDENTKwiki-Backlinks0.092005-06-29 15:00:46
HSTEEBcheckrc0.12005-06-29 15:52:20
JSTENZELOpenOffice-PerlPoint0.012005-06-29 17:30:21
CDENTKwiki-Blog0.102005-06-29 22:40:55
CDENTKwiki-Theme-CPB0.102005-06-29 22:41:15
CDENTKwiki-PPerl0.012005-06-30 02:17:16
RRWOTree-Node0.012005-06-30 07:48:20
GEOTIGEROracle-DDL0.102005-06-30 11:10:56
JAMESClass-DBI-FormBuilder-Plugin-Time-Piece0.022005-06-30 11:44:05

New Distributions for July 2005 (222)

AuthorDistributionVersionRelease Date/Time
NUFFINUNIVERSAL-isa0.012005-07-01 00:11:35
MSCHILLISWISH-API-Common0.012005-07-01 01:23:54
KAAREBusiness-Bof-Server0.062005-07-01 09:51:30
KAAREBusiness-Bof-Client0.062005-07-01 09:51:49
KANELog-Message-Simple0.012005-07-01 11:37:16
MOCONNORREST-Application0.012005-07-01 12:34:52
RSPIERBundle-RT0.0304022005-07-01 16:18:20
DPETROVText-Templet2.02005-07-01 18:04:01
LBROCARDTV-Anytime0.292005-07-01 19:15:14
LYOKATOTemplate-Plugin-Decode0.022005-07-02 04:24:17
MPREWITTNet-SMTP-Retryable0.0.12005-07-02 11:02:19
LYOKATOUTF8BOM0.012005-07-02 12:59:01
MARKSTOSData-FormValidator-FromDBI0.04_012005-07-02 13:02:46
MDXIAcme-Curses-Marquee1.02005-07-03 02:52:26
XERNBio-MedChunker0.012005-07-03 03:19:08
TYPESTERNet-DNS-ValueDomain-DDNS0.012005-07-03 05:18:36
YVESTest-Struct0.012005-07-03 12:12:56
ELIZABETHCache-Memcached-Managed0.072005-07-03 17:39:52
CHROMATICUNIVERSAL-can1.002005-07-03 18:03:54
PGOLLUCCIApache2-Filter-HTTPHeadersFixup0.062005-07-03 19:58:51
CWINTERSOpenInteract2-Action-FlickrFeed0.012005-07-03 22:42:35
NMUELLERHTML-GoogleMaps12005-07-04 11:07:55
TEEJAYBusiness-OnlinePayment-Protx0.032005-07-04 15:11:30
TEEJAYWebService-Postcodeanywhere-BACS-REST0.012005-07-04 15:13:40
MARNANELApache2-SiteControl0.482005-07-05 03:42:51
MARNANELNet-RGTP0.012005-07-05 03:44:56
NIKCTest-Symlink0.012005-07-05 08:36:10
NEMUXBluetooth-Socket0.012005-07-05 13:05:15
LBROCARDApp-Cache0.292005-07-05 13:05:32
AASSADCatalyst-Helper-Controller-Scaffold-HTML-Template0.012005-07-05 16:03:57
MNDRIXRDF-Sesame0.102005-07-05 18:44:20
DMUEYIO-Socket-PortState0.012005-07-05 19:27:40
OSFAMERONGrid-Coord0.042005-07-06 03:31:41
XERNTie-IxHash-FromText0.012005-07-06 06:23:53
CPLEEGeo-Caching0.102005-07-06 10:36:34
NIKCTest-Unix-User0.012005-07-06 12:08:36
MLAWRENLog-Delta0.012005-07-06 13:04:43
PGOLLUCCIApache2-DebugFilter0.022005-07-06 17:15:48
ANAGHAKKStatistics-Gap0.012005-07-06 23:32:20
MVRSub-Timebound1.002005-07-07 00:28:44
DAGOLDENStatistics-RankOrder0.102005-07-07 00:42:27
NIKCTest-Unix-Group0.012005-07-07 03:35:20
SALVAbarewords0.012005-07-07 05:17:39
BINGOSPOE-Filter-LZO1.02005-07-07 12:13:02
BINGOSPOE-Filter-Bzip21.02005-07-07 12:47:52
BINGOSPOE-Filter-LZW1.02005-07-07 15:10:16
BINGOSPOE-Filter-LZF1.02005-07-07 15:53:27
LLAPSOAP-Lite-Simple0.12005-07-07 16:02:18
DORIANCrypt-VERPString0.012005-07-07 22:37:24
KARASIKDBIx-AutoReconnect0.012005-07-08 04:37:08
NIKCTest-Net-Connect0.012005-07-08 04:37:24
CHUNZICatalyst-View-TT-Layout0.012005-07-08 04:44:42
LYOKATOClass-DBI-Plugin-Factory0.022005-07-08 11:08:14
PIRZYKUnix-Mknod0.022005-07-08 15:24:21
DMUEYIO-Socket-PortState-cPanel0.012005-07-08 16:33:03
JENSLAcme-True0.12005-07-08 17:10:14
RUBYKATPosy-Plugin-CgiFile0.012005-07-08 22:32:14
JGDACatalyst-View-MicroMason0.012005-07-08 23:31:52
PURDYCGI-Application-Plugin-BREAD0.102005-07-09 00:34:18
MIKERFile-SafeDo0.112005-07-09 14:06:45
DARNOLDThread-Queue-Duplex0.102005-07-09 16:42:30
MAKAMAKAAcme-Oil0.12005-07-10 02:48:16
REIDGames-Go-Sgf2Dg4.0262005-07-10 03:37:25
ADAMKJSAN-Index-Data0.01_012005-07-10 05:24:45
ADAMKApache2-PPI-HTML0.012005-07-10 07:31:20
ADAMKJSAN-Index0.01_012005-07-10 07:42:53
MAFRNet-LuceneWS0.012005-07-10 10:05:40
JOUKEDevice-Velleman-K80550.012005-07-10 13:54:25
MLEHMANNIO-AIO0.12005-07-10 14:11:21
SHEVEKCrypt-Dining1.002005-07-10 16:39:17
SHEVEKCrypt-Chimera1.002005-07-10 16:47:54
FERREIRAData-VString0.000_0012005-07-11 01:23:56
KAILIWorkflow-Wfmc0.012005-07-11 02:55:22
XERNLingua-POSAlign0.012005-07-11 06:56:20
ELIZABETHSys-RunAlways0.012005-07-11 07:50:28
CWESTJSAN0.012005-07-11 23:08:13
TOMIAcme-UTF112005-07-12 06:11:52
KIRSTINBTest-Nightly0.012005-07-12 07:20:26
AMBSXML-TMX0.112005-07-12 12:38:27
GEOTIGERFile-Stat-Ls0.102005-07-12 15:39:46
DAGOLDENGetopt-Lucid0.102005-07-12 20:15:04
GEOTIGERNet-SFTP-Recursive0.102005-07-12 23:42:53
RPAGITSCHHello0.012005-07-13 08:16:26
BROQPPIx-XPath1.0.02005-07-13 10:03:22
BROQPPIx-Index0.0.1_012005-07-13 10:11:56
MIKRATk-MK0.062005-07-13 12:19:31
GLASSERAcme-BlahBlahBlah0.012005-07-13 14:32:33
JASONKText-FakeData0.062005-07-13 15:23:51
RRWOlogic-kleene0.012005-07-13 16:37:18
CAPTTOFUDB0.99_02005-07-13 20:08:47
KIMRYANText-RecordDeduper0.012005-07-14 02:59:52
HANENKAMPSPOPSx-Tool-YAML0.032005-07-14 03:35:30
HANENKAMPSPOPSx-Tool-DateTime0.022005-07-14 04:10:43
RRWOLogic-Kleene0.042005-07-14 07:01:42
SGODINCGI-NoPoison3.102005-07-14 12:39:29
JASONKData-Faker0.072005-07-14 12:54:28
HANENKAMPFleetConf0.01_0122005-07-14 18:23:11
CAMFile-SetSize0.12005-07-14 19:35:31
JCAPKwiki-Users-Cookie0.012005-07-15 00:08:20
JCAPKwiki-UserName-Cookie0.012005-07-15 00:17:01
ELEONORAptkbl1.02005-07-15 03:48:17
TURNERJWNet-xFTP0.012005-07-15 10:33:13
GRYPHONFilter-CommaEquals0.012005-07-15 18:21:39
ALPOCGI-Portal0.012005-07-15 22:46:26
SOCKWWW-Search-UrbanDictionary0.012005-07-16 00:30:24
MSCHILLIConfig-Patch0.012005-07-16 01:13:03
LYOKATOHTML-TagCloud-Extended0.012005-07-16 02:48:39
EHOODSGML-DTDParse2.002005-07-16 19:30:08
RUBYKATPosy-Plugin-InfoFind0.012005-07-17 02:27:25
RENEEBTk-Airports0.012005-07-17 05:29:53
ELIZABETHSys-RunUntil0.012005-07-17 06:43:17
SMUELLERMath-Taylor1.002005-07-17 11:30:34
ROBERTMAYWin32-GUI-SplashScreen0.012005-07-17 17:48:51
MRAMBERGCatalyst-Plugin-Unicode-Encoding0.12005-07-17 18:20:13
MRAMBERGHTML-Prototype-Useful0.012005-07-17 18:23:41
MARKSTOSDBIx-AsForm0.01_012005-07-17 23:07:56
EGERMANLemonldap-Portal-Session0.012005-07-18 07:33:34
TAREKAPod-WSDL0.012005-07-18 10:07:27
TAREKAPod-WSDL-AUTOLOAD0.012005-07-18 10:07:45
TAREKAPod-WSDL-Attr0.012005-07-18 10:08:02
TAREKAPod-WSDL-Doc0.012005-07-18 10:08:19
TAREKAPod-WSDL-Fault0.012005-07-18 10:08:35
TAREKAPod-WSDL-Method0.012005-07-18 10:08:55
TAREKAPod-WSDL-Param0.012005-07-18 10:10:56
TAREKAPod-WSDL-Return0.012005-07-18 10:11:12
TAREKAPod-WSDL-Type0.012005-07-18 10:11:28
TAREKAPod-WSDL-Utils0.12005-07-18 10:11:44
TAREKAPod-WSDL-Writer0.012005-07-18 10:11:59
MRAMBERGCatalyst-Plugin-Upload-MIME0.012005-07-18 10:43:30
MRAMBERGCatalyst-Plugin-Upload-Basename0.012005-07-18 10:49:33
PETDANCEApp-HWD0.012005-07-18 12:39:21
DAVEBAIRDMaypole-Plugin-Config-Apache0.12005-07-18 15:32:35
DSAMZASimpleCalendar-Date1.12005-07-18 17:39:25
MRAMBERGCatalyst-Plugin-SuperForm0.012005-07-18 18:23:13
AGENTModelSim-List0.032005-07-19 03:26:43
AGENTTemplate-Ast0.012005-07-19 05:00:06
APALADEArchive-Chm0.052005-07-19 06:51:59
AGENTTemplate-Plugin-Perl0.012005-07-19 08:25:57
AGENTTemplate-Plugin-POSIX0.012005-07-19 08:33:27
AGENTWin32-Wildcard0.012005-07-19 08:53:09
KAILIConvert-PerlRef2String0.022005-07-19 11:48:07
SHLOMIFAcme-Gosub0.1.22005-07-19 15:40:33
EVDBTest-PerlTidy0.012005-07-19 18:18:00
SMUELLERMath-SymbolicX-Statistics-Distributions1.002005-07-20 13:13:07
JEBWWW-IndexParser0.12005-07-20 17:17:23
JONATHANMath-Calculus-TaylorSeries0.12005-07-20 18:59:36
JONATHANMath-Calculus-TaylorEquivalent0.12005-07-20 20:05:15
LPALMERClass-Multimethods-Pure0.012005-07-21 00:27:23
SOCKWWW-Search-Bookmarks0.012005-07-21 00:50:59
LUSHEHTML-Template-Ex0.012005-07-21 03:53:40
DAVEBAIRDMaypole-Plugin-ColumnGroups0.12005-07-21 06:21:37
JEFFWCobalt-LCD0.012005-07-21 06:53:37
REITERFrameNet-WordNet-Detour0.92005-07-21 12:36:36
KENTk-PodSingle1.002005-07-21 15:31:44
BWARFIELDTest-AutoLoader0.022005-07-21 16:01:45
CLOTHONet-IP-Match-Regexp0.902005-07-21 16:18:41
ITUBAnnoCPAN-Perldoc0.102005-07-21 22:43:17
ABHAuthen-Bitcard0.852005-07-22 05:46:20
DSAMZAEasyDate1012005-07-22 08:19:52
EVANZSPDF-CreateSimple1.022005-07-22 08:31:58
GUGODKwiki-Podcast0.012005-07-22 08:40:09
KAILIJabber-PubSub-JEAI0.012005-07-22 09:10:44
AWRIGLEYWurlf1.002005-07-22 13:29:51
AWRIGLEYMobile-Wurfl1.002005-07-22 13:31:41
EVANZSPDF-CreateSimple1052005-07-22 14:26:35
ROODEText-QuickTemplate0.012005-07-22 17:38:50
RICKMDateTime-LazyInit0.102005-07-22 20:19:19
DCONWAYGetopt-Euclid0.0.22005-07-23 00:41:06
BCHWin32-Filenames0.012005-07-23 01:41:14
LODINText-Outdent0.012005-07-23 06:00:48
ENRYSPOD2-IT0.052005-07-23 10:18:47
JCMULLERDCOP-Amarok-Player0.012005-07-23 11:36:42
JCMULLERDCOP-Amarok0.012005-07-23 11:36:58
JCMULLERDCOP0.012005-07-23 11:37:14
JCMULLERIO-Lcdproc-Client0.012005-07-23 11:37:30
JCMULLERIO-Lcdproc-Screen0.012005-07-23 11:39:21
JCMULLERIO-Lcdproc-Widget0.012005-07-23 11:39:37
JBUHACOFFCGI-Session-Driver-bitbucket1.042005-07-23 13:10:08
JBUHACOFFCGI-Session-Driver-flexmysql0.2.042005-07-23 13:50:58
LODINSub-Define0.012005-07-23 18:49:47
JCMULLERIO-LCDproc0.012005-07-24 13:00:26
KENWUWWW-Shorten-KUSO0.12005-07-24 13:48:58
DYFETBayonne-Libexec0.022005-07-24 17:01:48
AGULWWW-Overture-Keywords1.22005-07-25 06:08:44
EROLLINSGenezzo-Contrib-Clustered0.012005-07-25 07:21:31
ADAMKJSAN-Parse-FileDeps0.012005-07-25 10:37:06
ADAMKJSAN-Librarian0.012005-07-25 13:12:26
KNOTTYNet-IRC20.00_032005-07-25 13:27:44
JHOBLITTDateTime-Format-DateParse0.012005-07-25 17:11:13
NKHText-Editor-Vip0.0112005-07-25 20:32:58
TYEMQData-Diver1.00022005-07-26 02:22:52
COGAcme-AsciiArt2HtmlTable0.012005-07-26 06:09:40
JENDAWin32-Registry0.00.282005-07-26 10:11:07
BRADFITZPerlbal1.32005-07-26 16:21:09
BRADFITZPerlbal-XS-HTTPHeaders0.182005-07-26 16:21:26
METZZOCatalyst-Plugin-Authentication-Simple1.002005-07-26 19:57:58
APERSAUDQualys0.012005-07-26 22:39:18
MGRAHAMCGI-Application-Plugin-Forward0.012005-07-27 03:52:25
LBROCARDKasago0.292005-07-27 09:11:05
KANEFile-Alter0.012005-07-27 10:21:29
KANEDBIx-Simple-OO0.012005-07-27 10:25:00
HARDAKERGetopt-GUI-Long0.22005-07-27 10:38:06
PMHTest-SerialFork0.012005-07-27 11:18:07
JESSEData-ICal0.012005-07-27 11:54:40
ITUBPod-Index0.102005-07-27 16:06:46
DAGOLDENObject-LocalVars0.102005-07-27 16:49:06
MIYAGAWAWWW-Blog-Metadata-OpenID0.012005-07-28 00:20:08
GUGODKwiki-Widgets-RecentChanges0.012005-07-28 00:46:30
RJBSTree-File0.092005-07-28 09:21:36
FLORANet-Jabber-Loudmouth0.012005-07-28 12:02:50
CROSSWIRETk-Gpack0.52005-07-28 15:12:46
GARTHSWF-Chart1.02005-07-28 16:33:55
AGRUNDMACatalyst-Plugin-OrderedParams0.012005-07-28 18:25:11
HANENKAMPContentment0.009_0172005-07-28 23:39:58
MARKSTOSCGI-Application-Plugin-FillInForm1.012005-07-28 23:43:50
KANECPANPLUS-Dist-Build0.012005-07-29 13:20:30
HDMsubatom0.012005-07-30 18:12:15
RVOSABio-Phylo0.012005-07-30 18:38:39
VESELOSKYCGI-Builder-LogDispatch0.12005-07-30 19:25:50
AARPOE-Component-Growl1.002005-07-31 12:09:49
CEESHEKCGI-Application-Plugin-HTMLPrototype0.102005-07-31 17:23:13
JBUHACOFFCGP-CLI2.6.72005-07-31 18:54:32

New Distributions for August 2005 (203)

AuthorDistributionVersionRelease Date/Time
SIMKINApache-LoggedAuthDBI0.112005-07-31 20:06:53
JBUHACOFFEmail-Simple-OneLineHeaders1.922005-07-31 23:03:19
SRIDevel-Nextalyzer0.012005-07-31 23:29:16
MSCHILLIText-Language-Guess0.012005-08-01 03:00:14
KMIYAZAKISymbol-Values1.002005-08-01 05:26:27
BLUEFEETClass-Measure0.012005-08-01 13:30:21
GEOTIGEROracle-SQL0.012005-08-01 15:22:35
GEOTIGEROracle-SQL-Builder0.012005-08-01 15:22:58
GEOTIGEROracle-DML0.102005-08-01 15:26:55
BRADFITZSys-Syscall0.12005-08-01 15:34:03
GAVINCApache-AuthTkt0.022005-08-01 19:16:24
DCONWAYDebug-Phases0.0.22005-08-02 01:15:06
DCONWAYLeading-Zeros0.0.22005-08-02 01:15:44
ALLENDAYGeo-Google0.012005-08-02 01:54:46
EJSObject-Mediator0.012005-08-02 02:15:34
SHLOMIFSVN-Pusher0.012005-08-02 04:45:51
JETEVEClass-AutoAccess0.012005-08-02 09:09:11
ITUBAcme-Class-DBI-NoThreats0.962005-08-02 12:29:19
JESSERT-Todo0.022005-08-02 14:10:32
JADGames-Dice-Probability0.012005-08-02 14:14:05
ITUBTest-Spelling0.102005-08-02 22:36:39
BLAIRPosy-Plugin-Cache-File0.12005-08-02 23:15:26
BLAIRPosy-Plugin-Flickr-Photo0.12005-08-02 23:15:46
PSPELTZCGI-UntaintPatched0.012005-08-03 02:25:14
OESTERHOLspodcxx0.212005-08-03 05:26:55
MATTLAWClass-DBI-ViewLoader0.012005-08-03 10:11:13
MATTLAWClass-DBI-ViewLoader-Pg0.012005-08-03 10:11:29
DCONWAYIO-Busy0.0.32005-08-03 11:06:43
DCONWAYToolkit0.0.22005-08-03 16:03:57
ABERGMANSVL0.292005-08-03 16:39:32
MOCKApache2-TieBucketBrigade0.072005-08-03 18:21:06
KMIYAZAKIwarnings-DynamicScope1.002005-08-03 18:50:39
BRENTDAXWWW-Kontent0.012005-08-03 19:16:37
DCONWAYRegexp-MatchContext0.0.22005-08-04 02:00:56
SOCKWWW-Search-Feedster0.012005-08-04 12:38:49
RUSEKDGCJ-Cni0.012005-08-04 16:18:08
LPALMERSymbol-Opaque0.012005-08-04 20:02:23
FERREIRACarp-Indeed0.012005-08-04 21:20:08
DCONWAYPerl6-Export-Attrs0.0.32005-08-04 21:41:13
MDMSApache2-Protocol0.12005-08-05 02:27:07
MDMSApache2-Protocol-ESMTP0.012005-08-05 02:29:26
MCMAHONWWW-Mechanize-Plugin-Retry0.012005-08-05 15:20:39
AKOLBSolaris-Lgrp0.1.12005-08-05 15:22:44
PAINARFID-ISO15693-Tag0.0022005-08-06 07:09:05
AHOSEYMac-Spotlight0.012005-08-06 13:40:18
MAKAMAKAClass-DBI-Plugin-MultiDatabases0.12005-08-07 02:22:39
OPILinux-Smaps0.012005-08-07 10:04:16
STEVANClass-C30.012005-08-07 15:01:52
TSHINNICCatalyst-Plugin-Devel-InPageLogs0.01_012005-08-08 02:25:30
RENEEBFabForce-DBDesigner40.012005-08-08 10:10:17
IVANNet-XRC0.012005-08-08 11:14:34
AAKHTERVisio1.0082005-08-08 12:27:04
JOUKESpeech-Synthesis0.012005-08-08 13:26:43
XANTUSPOE-Component-Client-Telnet0.052005-08-08 14:28:12
GSCHLOSSPHP-Interpreter1.02005-08-08 16:42:36
DCONWAYGetopt-Clade0.0.12005-08-08 17:04:06
MSTROUTDBIx-Class0.012005-08-08 20:12:07
GABBCatalyst-Model-DBIC-Plain0.012005-08-08 23:56:41
YAPPOWebService-SyncSBS-D2H0.022005-08-09 01:02:40
TYPESTERCatalyst-Plugin-Email-Japanese0.012005-08-09 03:38:52
SIMONWData-ICal-DateTime0.12005-08-09 04:46:03
JONASBNBusiness-OnlinePayment-CashCow0.012005-08-09 05:41:03
SARGIESOAP-Message0.012005-08-09 05:44:58
SARGIELWP-Simple-Post0.012005-08-09 07:42:16
WILSONDhey-heyPass1.052005-08-09 12:23:11
SPADKINSjs-app0.112005-08-09 16:07:48
SPADKINSApp-Widget-JSApp0.102005-08-09 16:08:04
MCEWANText-Scraper0.012005-08-09 16:21:06
YAPPOFile-Storage-Stat0.012005-08-10 02:07:41
YAPPOFile-CounterSS0.012005-08-10 06:14:29
CLOTHOPod-FromActionscript0.502005-08-10 09:13:56
RHESAHTML-Template-Pluggable0.012005-08-10 10:04:43
AARMail-Ezmlm-Archive0.142005-08-10 10:11:22
CLOTHOSWF-NeedsRecompile1.002005-08-10 10:13:16
TYPESTERCatalyst-Plugin-Account-AutoDiscovery0.012005-08-10 16:05:10
MBARBONWx-Perl-ListCtrl0.012005-08-10 18:26:23
GLASSERXML-WBXML-SyncML0.012005-08-10 18:32:13
GUGODKwiki-Widgets-RandomQuote0.012005-08-11 02:07:43
BINGOSPOE-Component-Server-SimpleContent0.012005-08-11 07:03:19
HIHIKDate-Say-Czech0.022005-08-11 12:17:59
CDENTKwiki-Keywords0.132005-08-11 21:30:24
AGRUNDMACatalyst-Plugin-Static-Simple0.012005-08-11 21:37:04
GLASSERXML-WBXML0.012005-08-11 21:51:26
XERNAcme-PerlTidy0.012005-08-12 06:08:24
DRAUONERFinance-Bank-INGDirect1.032005-08-12 10:51:09
DAVEBAIRDMaypole-Plugin-LinkTools0.12005-08-12 12:29:17
LINCHTML-TagUtil1.402005-08-12 15:19:06
AYOUNGeBay1.2_devel2005-08-12 18:19:49
JAEPSTEINMassSpec-ViewSpectrum-RealVsHypPeptide0.012005-08-12 18:41:34
AYOUNGWebservice-eBay1.2_devel2005-08-12 18:44:05
SOCKWWW-Bookmarks0.012005-08-12 19:11:10
MSCHILLITrash-Park0.012005-08-13 12:25:22
TSCHGStreamer-GConf0.012005-08-13 13:36:37
NJHDevice-Quasar31080.012005-08-14 17:43:35
LARSNYGText-Identify-BoilerPlate0.12005-08-15 06:56:18
XERNAcme-VarMess0.012005-08-15 07:35:39
KOLIBRIEClass-Inflate0.012005-08-15 17:00:38
CLAESJACTest-Harness-FileFilter0.012005-08-15 17:04:35
QMICLinuxRealTime0.012005-08-15 17:24:22
TSCHCairo0.012005-08-15 17:29:51
LINCTie-ScalarFile1.122005-08-15 19:56:44
WILSONDHey-heyPass1.072005-08-15 20:20:07
DAVIDNICOTipJar-Template-fill0.012005-08-15 22:14:15
KIMRYANText-Record-Deduper0.042005-08-16 02:25:55
ETWOECMApromessaging-MRS1.012005-08-16 04:35:37
CLOWNGames-SGF-Tournament0.01_022005-08-16 06:32:08
CROSSWIREClass-GAPI1.02005-08-16 09:43:20
CROMEDOMECGI-Application-Plugin-HTDot0.022005-08-16 10:56:17
ELLIPSEPDL-LinearAlgebra0.012005-08-16 11:13:42
PHILIPSDBIx-MyParse0.102005-08-16 11:48:21
MIYAGAWAXML-Atom-Stream0.012005-08-16 22:28:12
PERRADCORBA-Python0.202005-08-17 03:57:27
MAKAMAKAAcme-BeyondPerl-ToSQL0.012005-08-17 06:00:40
JSETSudoku0.012005-08-17 10:00:56
DANKOGAILingua-JA-Numbers0.012005-08-17 16:15:04
ADAMKAcme-PerlML0.012005-08-17 21:49:19
ALLENDAYImage-Ocrad0.012005-08-17 21:49:38
ADAMKPerl-BestPractice0.012005-08-18 01:07:54
WILSONDHey-MySQL3.132005-08-18 01:59:30
JSETGames-Sudoku0.042005-08-18 11:36:59
MBARBONAlien-wxWidgets0.032005-08-18 12:21:12
EYCKNet-FTP-Lite0.012005-08-18 14:02:13
ROODEIterator-DBI0.012005-08-18 14:04:51
ROODEIterator-IO0.012005-08-18 14:05:08
ROODEIterator-Misc0.012005-08-18 14:05:25
ROODEIterator-Util0.012005-08-18 14:05:43
ACCARDOHTML-Perlinfo1.002005-08-18 17:39:08
TINITAHTML-Template-Compiled0.322005-08-18 18:27:27
JOHANLDevel-PerlySense0.01_012005-08-18 20:34:19
MGRAHAMCGI-Application-Plugin-LinkIntegrity0.012005-08-19 04:21:23
SMCNABBDrupal-Module-Starter0.022005-08-19 11:47:32
INGYKwiki-Wikiwyg0.102005-08-19 18:50:53
EBRUNIHTML-Template-Pro-Extension0.032005-08-19 21:32:36
FRIEDOXML-Spew0.012005-08-20 00:54:37
FRANCKCCatalyst-Plugin-EmailValid0.012005-08-20 08:06:30
OLIVERCatalyst-Plugin-HashedCookies0.012005-08-20 14:07:08
BARGLEDevel-TypeCheck0.012005-08-21 01:06:18
PGOLLUCCIBundle-B0.01_012005-08-21 04:56:08
ADAMKJSAN-Client0.062005-08-21 09:30:51
ADAMKJSAN-Mini0.012005-08-21 10:41:07
SCESANOLego-Ldraw0.52005-08-21 18:38:25
JTAVERNIHTML-Content-Extractor0.012005-08-21 23:38:43
MLEHMANNLinux-Inotify20.12005-08-22 06:01:27
ABWXML-Namespace0.022005-08-22 10:17:51
WAZZUTEKECaptureLog0.012005-08-22 10:21:21
PIAObject-AutoAccessor0.012005-08-22 10:31:27
ANAGHAKKStatistics-CalinskiHarabasz0.012005-08-22 13:15:29
DLKINGBBCode-Parser0.012005-08-22 14:31:14
CBOURNEMIDI-Praxis-Variation0.042005-08-22 15:19:38
RCONOVERCatalyst-View-PHP0.012005-08-22 15:27:05
ANAGHAKKStatistics-Hartigan0.012005-08-22 16:29:36
MSCHILLIPerldoc-Search0.012005-08-23 02:39:15
WAZZUTEKESimpleLog0.012005-08-23 10:00:30
RUSEKDJava-Import0.012005-08-23 19:58:25
GAASTkx1.002005-08-24 04:37:08
BINGOSPOE-Component-WWW-Shorten0.852005-08-24 09:28:16
LMEYERClass-Std-Storablev0.0.12005-08-24 23:56:35
RPETTETTBio-DasLite0.012005-08-25 06:05:49
SSCCatalyst-Plugin-Authorization-CDBI-GroupToken0.012005-08-25 17:20:07
FERREIRATao-DBI0.00_012005-08-25 20:12:55
LINCHTTP-Client1.512005-08-25 21:36:07
TYPESTERCatalyst-Plugin-Authentication-Basic-Remote0.012005-08-26 07:35:01
BCTCGI-Perljax0.12005-08-26 15:28:03
RHESAHTML-Template-Plugin-Dot-Helpers0.012005-08-26 16:41:19
SCOTTNMail-MXplus0.012005-08-26 18:03:40
NMCFARLNet-Growl0.992005-08-26 22:09:44
LYOKATOClass-DBI-Plugin-NoCache0.022005-08-27 02:17:06
ADAMKJSAN-Shell2.00_012005-08-27 02:20:34
DROLSKYJSAN-ServerSide0.012005-08-27 03:25:49
KJETILKFormatter-FOAFKnows-vCard0.12005-08-27 19:35:50
BOOKspod50.012005-08-28 11:41:30
DANKOGAIAcme-Takahashi-Method0.012005-08-28 12:36:05
CROMEDOMECGI-Application-Plugin-CAPTCHA0.012005-08-28 14:31:21
DARNOLDDBIx-Threaded0.102005-08-28 15:16:56
JESSEAcme-Net-OdiousPlan0.0012005-08-28 23:44:18
SGOELDNERDBD-monetdb0.062005-08-29 02:43:51
RUBYKATSQLite-Work0.022005-08-29 05:04:18
MRAMBERGCatalyst-Plugin-DefaultEnd0.012005-08-29 11:20:32
BORISZApache2-PageKit2.14_142005-08-29 15:37:36
DANBERRNet-DBus0.32.12005-08-29 16:53:51
DANBERRAuthen-PAAS1.1.02005-08-29 17:06:53
SAMTREGARHTML-PopupTreeSelect-Dynamic1.02005-08-29 18:01:54
KJETILKXML-FOAFKnows-FromvCard0.22005-08-29 19:11:06
DANKOGAIAcme-Bleach-Numerically0.012005-08-29 21:39:29
ICHUDOVNet-eBay0.012005-08-30 01:16:58
JKONDOHTML-MobileConverter0.012005-08-30 03:42:09
STEPANOVWWW-Yahoo-Movies0.012005-08-30 09:14:06
KAAREReportWriter0.072005-08-30 13:38:39
CLIVEWin32-StreamNames1.002005-08-30 16:58:46
ROBLMMS-MailMessage0.012005-08-31 03:30:41
ROBLMMS-MailMessage-ProviderParsed0.012005-08-31 03:41:43
ROBLMMS-ProviderMailParser0.012005-08-31 03:43:52
ROBLMMS-ProviderMailParser-UKVodafone0.012005-08-31 03:46:04
ROBLMMS-MailParser0.012005-08-31 03:48:16
JETEVEData-Freezer0.012005-08-31 05:19:45
TIMBRODYEncode-LaTeX0.12005-08-31 06:58:08
GAVINCURI-Query0.042005-08-31 07:48:49
GAVINCList-MRU0.012005-08-31 08:01:46
PCAMPBELLModule-Bundled-Files0.012005-08-31 08:07:15
DOMMModule-CPANTS-Site0.022005-08-31 12:03:33
MCMAHONDevel-Command-Viz0.012005-08-31 15:20:46
MCMAHONDevel-Command-Tdumpv0.0.12005-08-31 16:58:07
NARUSEEncode-EUCJPMS0.022005-08-31 17:46:22

New Distributions for September 2005 (171)

AuthorDistributionVersionRelease Date/Time
ADAMKTest-SubCalls0.012005-08-31 23:13:15
GUGODKwiki-UserName-Auth0.012005-09-01 01:28:21
ASCOPENet-Flickr-Backup1.22005-09-01 20:43:12
BRICASCatalyst-Model-Gedcom0.012005-09-01 21:21:42
NAOYAHTML-AccountAutoDiscovery0.062005-09-01 23:27:25
DAGOLDENFile-pushd0.102005-09-02 00:07:25
RGARCIARunops-Switch0.012005-09-02 06:02:49
BERIKVAcme-Hyperindex0.022005-09-02 10:00:32
LBROCARDDevel-ebug-HTTP0.292005-09-02 10:17:57
METZZOVariable-Strongly-Typedv1.0.02005-09-02 12:21:14
CMUNGALLBio-Chaos0.022005-09-02 14:47:08
ALEXEVILEvilBoss1.012005-09-02 17:23:48
OFEYAIKONGtk2-Ex-Threads-DBI0.012005-09-02 17:47:35
PERIGRINRegexp-Common-IRC0.012005-09-02 22:47:27
TOKUHIROMTest-WWW-Mechanize-Plugin-Jcode0.012005-09-03 10:44:14
COPEGames-Sudoku-OO0.012005-09-03 12:41:00
HANENKAMPIO-NestedCapture1.012005-09-03 12:55:42
DWHEELERText-Diff-HTML0.012005-09-03 14:39:45
ANKImage-PNGwriter0.012005-09-03 16:54:34
RUBYKATPosy-Plugin-InfoSQLite0.012005-09-04 02:01:49
RUBYKATX11-Muralis0.012005-09-04 03:08:58
KENTAROWWW-Blog-Metadata-AccountAutoDiscovery0.012005-09-04 03:31:23
RCONOVERText-Ngram-LanguageDetermine0.012005-09-04 15:35:00
BJTXfce40.0012005-09-04 23:38:53
BBCWx-Perl-VirtualTreeCtrl1.0152005-09-05 06:22:31
ROBLBundle-MMSMailParser0.012005-09-05 07:42:15
OVIDGames-Maze-FirstPerson0.012005-09-05 17:02:35
TSHINNICCatalyst-Plugin-Session-CGISession0.01_022005-09-05 17:07:53
KIANWINFile-Bidirectional0.012005-09-06 02:29:31
MRAMBERGCatalyst-Helper-Controller-Scaffold-Mason0.012005-09-06 04:16:42
KANEPackage-Constants0.012005-09-06 08:34:32
WALTERHTinyMake022005-09-06 09:35:54
SHERZODRNet-UPS0.01_012005-09-06 20:07:42
TRIDDLEParse-MediaWikiDump0.12005-09-07 00:45:05
DBUCHMANMegaDistro0.012005-09-07 01:49:40
RDICECGI-Application-Framework0.20_82005-09-07 12:29:03
CCOLBOURNData-Sync0.012005-09-07 13:08:46
DWHEELERText-WordDiff0.012005-09-07 15:09:52
IVORWModule-Optional0.012005-09-07 19:07:27
CWESTModule-Build-JSAN0.012005-09-07 22:34:44
KANEModule-Loaded0.012005-09-08 06:52:53
BCTCGI-Ajax0.312005-09-08 11:28:23
VIPERCODESCGI0.22005-09-09 06:55:10
GUGODKwiki-UserPhoto0.012005-09-09 12:05:29
LPALMERCall-Immediate0.012005-09-09 19:37:54
KENTAROClass-AutoAccess-Deep0.012005-09-10 10:54:28
JPACEFinance-Account-Archive1.02005-09-10 11:45:04
JPACEFinance-Figor1.02005-09-10 12:29:12
PATLautorequire0.012005-09-10 18:00:19
ROBLBundle-MMS-Mail-Parser0.012005-09-11 10:28:00
ROBLMMS-Mail-Message0.012005-09-11 10:28:19
ROBLMMS-Mail-Message-Parsed0.012005-09-11 10:28:36
ROBLMMS-Mail-Parser0.012005-09-11 10:30:45
ROBLMMS-Mail-Provider0.012005-09-11 10:31:05
ROBLMMS-Mail-Provider-UKVodafone0.012005-09-11 10:31:25
JMHOGLUNDLog-Agent-Driver-Apache0.0022005-09-11 11:36:14
GENEMath-Counting0.00_012005-09-11 23:49:24
CRAIHAGeo-Coordinates-Parser0.012005-09-12 04:16:47
MITTIDevice-SerialPort-Xmodem1.002005-09-12 11:35:04
ALECSDBIx-SQL-Abstract0.072005-09-12 14:09:31
BWARDENAcme-DRM0.012005-09-12 17:57:11
EBRUNIHTML-Tag0.012005-09-12 18:04:23
TYPESTERCatalyst-Plugin-AtomPP0.012005-09-13 04:05:47
TMTMClass-DBI-Search-LIMITed1.002005-09-13 04:10:14
IKLUFTSlauth0.012005-09-13 04:54:59
IKLUFTSlauth-Register-Mailman0.012005-09-13 04:57:09
NAOYACGI-Application-FastCGI0.012005-09-13 05:47:56
CEESHEKCGI-Application-Plugin-Redirect0.12005-09-13 18:00:56
DAVEBAIRDTest-WWW-Mechanize-Maypole0.12005-09-13 19:56:29
HAGUnix-MyPathToInc0.12005-09-13 20:55:47
CLAESJACModule-Checkstyle0.012005-09-14 08:18:24
HOLOWAYCatalyst-View-REST-Data-Serializer0.012005-09-14 13:31:50
OVIDBundle-Ovid1.02005-09-14 13:35:22
KJETILKRDF-Scutter0.012005-09-14 18:35:27
CNANDORGames-Baseball-Scorecard0.012005-09-14 19:00:28
PLATOAcme-Labs1.12005-09-15 01:40:22
SONNENData-Validate-URI0.012005-09-15 10:10:26
MCMAHONWWW-Mechanize-Plugin-Cachev0.0.12005-09-15 17:33:14
DANIELTWCCatalyst-Model-LDAP0.042005-09-15 21:47:52
AREIBENSPDF-APIx-Layout0.00_001.MSWin32-5.0.ppm2005-09-15 22:04:44
AREIBENSPDF-APIx-Layout-0.00_001.MSWin325.0.ppm2005-09-15 22:04:44
ZACKSECGI-Application-Plugin-Output-XSV0.012005-09-16 00:16:16
STEPANOVWebService-Bloglines-Blogroll0.022005-09-16 06:09:01
DAMIDBIx-DataModel0.102005-09-16 06:09:18
EGERMANLemonldap-Cluster-Status0.012005-09-16 11:06:59
DAKKARTemplate-Plugin-ASCIITable0.12005-09-16 11:20:23
TMTMClass-DBI-Search-Count1.002005-09-16 17:01:09
DBROWNINGBusiness-Shipping-DataTools1.002005-09-16 23:57:49
ELLIPSEPDL-Opt-NonLinear0.012005-09-17 11:31:43
SMUELLERMath-Symbolic-Custom-Simplification1.002005-09-17 15:15:09
SMUELLERMath-Symbolic-Custom-Pattern1.002005-09-17 15:17:46
NUFFINDevel-STDERR-Indent0.012005-09-17 15:33:38
GUGODKwiki-DB0.012005-09-18 07:49:39
ADAMKFile-PathList0.012005-09-18 11:42:41
JKEENANExtUtils-ModuleMaker-PBP0.052005-09-18 14:19:20
TIMAPod-PseudoPod-CrossReference0.012005-09-18 20:23:56
OVIDData-Record0.012005-09-19 00:36:17
TOMIClass-DBI-utf80.12005-09-19 11:43:24
GUGODKwiki-Widgets-Links0.012005-09-19 12:55:24
RPAULGetopt-WonderBra12005-09-19 14:44:34
JJORERegexp-NamedCaptures0.012005-09-19 22:16:16
SALVADevel-FastProf0.012005-09-20 07:29:37
TANIGUCHIUnicode-RecursiveDowngrade0.012005-09-20 10:08:52
JDUNCANXML-DOMBacked1.002005-09-20 10:56:41
FERREIRADevel-Hide0.00_012005-09-20 13:16:09
IOANNISIO-Infiles0.012005-09-20 13:36:07
ERWANLog-Localized0.012005-09-20 16:47:33
FRIEDONet-SMTP-IPMM0.012005-09-20 17:39:52
DAVEBAIRDDevel-Maypole0.12005-09-20 19:09:04
CLOTHOAnnoCPAN-Perldoc-SyncDB0.102005-09-21 00:04:14
ROBLMMS-Mail-Provider-UK020.012005-09-21 02:15:01
ROBLMMS-Mail-Provider-UKOrange0.012005-09-21 02:15:18
TYPESTERCGI-Dispatcher-Simple0.012005-09-21 03:37:08
AKRWin32-AD0.012005-09-21 05:25:32
AKRWin32-AD-Control-DirSync0.012005-09-21 07:19:18
CTRLSOFTParse-Pidl0.012005-09-21 09:06:53
RHESACGI-Application-Plugin-DevPopup0.012005-09-21 10:47:49
OFEYAIKONGtk2-Ex-ComboBox0.012005-09-21 15:27:36
EIJABBmarc-lint1.412005-09-21 19:02:45
FLORAIO-Dir-Recursive0.012005-09-21 22:37:41
NEKOKAKCGI-MiniFramework0.012005-09-22 09:41:45
PURDYCGI-Application-Plugin-MessageStack0.102005-09-22 14:24:27
AARModule-Crypt0.012005-09-22 15:01:17
MRDELAYERAcme-Terror0.012005-09-22 17:47:40
CEESHEKCGI-Application-Plugin-Authentication0.042005-09-22 21:41:55
GBROWNGtk2-Ex-Carp0.012005-09-23 07:07:20
DAGOLDENPod-WikiDoc0.102005-09-23 09:54:37
OFEYAIKONGtk2-Ex-DBITableFilter0.012005-09-23 15:37:50
ERICWRoll1.02005-09-23 16:35:48
LEEDOGtk2-Ex-PopupWindow0.022005-09-23 18:06:23
KENxls2csv1.022005-09-23 18:10:17
PJFAcme-ButFirst1.002005-09-23 23:15:50
MGRAHAMCGI-Application-Plugin-FormState0.012005-09-24 04:32:51
AGENTMakefile-Parser0.012005-09-24 09:41:16
NEKOKAKWebService-Hatena-Exist0.012005-09-24 11:18:50
CFAERBERWWW-MediaWikiOO0.00_00012005-09-24 12:57:59
CHESSKITChessKit0.012005-09-25 11:52:53
SLANNINGMozilla-Mechanize0.012005-09-25 14:58:19
DOLMENText-FixedLengthMultiline0.012005-09-25 17:25:59
ASCOPENet-Flickr-API1.02005-09-25 18:51:23
ASCOPENet-Flickr-RDF1.02005-09-25 18:53:35
TURNERATie-ExecHash0.902005-09-25 23:48:40
NEKOKAKURI-Fetch-SimpleCache0.012005-09-26 01:57:43
HATAText-ETSV0.012005-09-26 02:03:26
CLOTHOWin32-Codepage1.002005-09-26 13:13:21
GUGODKwiki-Session0.012005-09-26 15:01:01
NJHAudio-MPD0.12.12005-09-26 16:48:37
LPALMERLanguage-AttributeGrammar0.012005-09-26 20:22:30
SAVAEncode-Unicode-IMAPUTF71.002005-09-27 08:50:50
RYOCHINAcme-Void0.022005-09-27 11:30:57
UNRTSTData-JavaScript-Compactor0.022005-09-27 15:06:09
EBASSIGtk2-SourceView1.0002005-09-27 17:30:41
STEFFENWTie-Sub0.012005-09-27 17:51:25
NAOYATemplate-Plugin-JavaScript-Compactor0.012005-09-28 01:10:21
ADAMKURI-ToDisk1.082005-09-28 05:00:47
DAKKARHTML-Controls0.12005-09-28 06:27:43
TIMBRODYTeX-Encode0.32005-09-28 10:40:35
SAVAEncode-IMAPUTF71.002005-09-28 10:42:51
RPETTETTModule-PortablePath0.012005-09-28 17:14:57
JKONDOText-Hatena0.012005-09-29 02:04:36
NAOYATemplate-Plugin-Hatena0.012005-09-29 07:23:38
BERIKVData-Page-Set0.012005-09-29 08:54:47
OFEYAIKONGtk2-Ex-DateRange0.012005-09-29 15:32:24
DAOTOADLog-WithCallbacks1.002005-09-29 16:11:21
UNRTSTJavaScript-Squish0.032005-09-29 17:23:56
RPAULException-ThrowUnless1.012005-09-30 08:18:40
BASHIImager-DTP0.012005-09-30 10:30:45
GBROWNGtk2-Ex-PrintDialog0.012005-09-30 11:10:54
LYOKATOFormValidator-Simple0.022005-09-30 14:16:14
LYOKATOFormValidator-Simple-Plugin-Japanese0.022005-09-30 14:18:07
LYOKATOCatalyst-Plugin-FormValidator-Simple0.022005-09-30 14:18:22

New Distributions for October 2005 (177)

AuthorDistributionVersionRelease Date/Time
PATLIO-Mux0.042005-09-30 20:23:34
AGENTMakefile-GraphViz0.012005-10-01 01:00:43
DLANDHTML-Rainbow0.012005-10-01 10:35:51
RHUNDTOryx0.032005-10-01 14:39:13
RHUNDTXML-DOM-Lite0.012005-10-01 15:48:52
RJBSNumber-Nary0.012005-10-01 20:10:34
OVIDData-XML-Variant0.012005-10-01 22:19:36
MCANTONINet-Netstat-Wrapper0.022005-10-02 06:20:54
GUGODKwiki-UserMessage0.012005-10-02 06:50:26
WORRALLNet-Analysis0.012005-10-02 15:03:45
WORRALLNet-Analysis-Listener-HTTPClientPerf0.012005-10-02 15:06:28
RCAPUTOPOE-Stage0.00552005-10-02 20:47:30
JHOBLITTPod-Tidy0.012005-10-02 21:33:43
MIZZYFormValidator-Simple-Plugin-Number-Phone-JP0.012005-10-02 22:48:29
MIZZYCGI-Application-Plugin-FormValidator-Simple0.012005-10-03 04:03:33
RGARCIAURPM1.282005-10-03 05:43:35
LYOKATOFormValidator-Simple-Plugin-CreditCard0.012005-10-03 07:29:10
MIRKAlvis-Pipeline0.042005-10-03 09:19:22
CHRISYNet-Elexol-EtherIO240.012005-10-03 12:57:44
NANARDONrpmconstant0.1.02005-10-04 00:14:15
GBROWNGtk2-Ex-PodViewer0.132005-10-04 08:05:37
FOTANGOFroody422005-10-04 09:49:13
FERREIRANumber-Bytes-Human0.012005-10-04 12:35:42
PARCHERiptckeyword1.52005-10-04 13:47:47
TIMBJDBC0.012005-10-04 18:33:50
DWHEELEREncode-ZapCP12520.012005-10-04 19:27:22
FDULAUTie-Hash-RegexKeys1.22005-10-05 09:08:13
OVIDData-Dumper-Names0.012005-10-05 13:09:56
AWKAYApache-SiteControl1.012005-10-05 18:09:43
LUKHNOSLingua-ZH-BPMFConvert0.012005-10-05 18:24:27
ADAMKPerl-Metrics0.022005-10-06 01:56:03
ADAMKPerl-Metrics-Plugin-MinimumVersion0.012005-10-06 06:27:21
JGMYERSProc-PID-File-Fcntl0.12005-10-06 12:31:48
TSCHGStreamer-Interfaces0.012005-10-06 15:52:29
GAALBundle-Pugs-SmokeKit0.012005-10-06 18:07:40
SRIHTTP-Body0.012005-10-06 19:31:10
SILISQL-Builder0.012005-10-07 04:05:55
KOKOGIKOLocation-GeoTool-Plugin-Locapoint0.012005-10-07 05:39:39
WROSSApache-Imager-Resize0.102005-10-07 08:11:07
MCMAHONApp-SimpleScan0.012005-10-07 17:23:40
MCMAHONApp-SimpleScan-Plugin-Cache0.012005-10-07 17:23:58
AARONJJClass-DBI-Plugin-FilterOnClick1.02005-10-07 18:28:28
PARDUSFile-DesktopEntry0.022005-10-08 12:10:28
SRIDBIx-Class-Loader0.012005-10-08 12:22:11
SRICatalyst-Model-DBIC0.092005-10-08 12:37:12
AARCrypt-GCrypt1.002005-10-09 15:06:11
LPALMERTie-Hash-Vivify0.012005-10-09 20:26:51
SOCKWWW-Search-ISBNDB0.012005-10-10 06:13:31
AGRUNDMACatalyst-Engine-Apache0.992005-10-10 10:16:36
FRANCKCBot-BasicBot-Pluggable-Module-Delicious0.012005-10-10 15:25:27
FRANCKCBot-BasicBot-Pluggable-Module-HTTPIRCGW0.012005-10-10 15:25:50
OVIDArray-AsHash0.012005-10-10 18:22:25
MGRAHAMTest-FormValidator0.012005-10-10 22:32:09
MSCHWERNUNIVERSAL-require0.102005-10-11 01:04:23
GMCCARWWW-LiveDepartureBoards0.012005-10-11 05:27:04
BROQParams-Named1.0.02005-10-11 07:06:19
COGBundle-SDK-COG0.012005-10-11 09:11:33
HIDECatalyst-Plugin-RequestToken0.012005-10-11 09:15:14
BTROTTData-ObjectDriver0.012005-10-11 16:46:41
MAKAMAKAWWW-HostipInfo0.052005-10-11 23:58:56
RGARCIAPerl-Unsafe-Signals0.012005-10-12 06:35:24
IVANBusiness-OnlinePayment-Capstone0.022005-10-13 01:54:04
LBROCARDNet-FTP-Throttle0.292005-10-13 11:24:37
KARLWARDNet-MAC1.12005-10-14 00:53:19
LYOKATOCatalyst-Plugin-Session-Manager0.02_012005-10-14 12:27:26
ATRICKETTLog-Trivial0.012005-10-14 17:10:26
TYPESTERFile-Data-Simple0.012005-10-15 06:24:45
RJBSString-Truncate0.012005-10-15 10:26:23
IVORWOpenGuides-RDF-Reader0.012005-10-15 12:04:18
MSCHILLIFile-Tail-FAM0.012005-10-16 05:14:39
KIRSLETk-TOTD0.102005-10-16 16:10:53
YANICKGames-PerlWar0.012005-10-16 21:04:18
ASKADNACGI-Application-Plugin-Eparam0.012005-10-16 21:08:02
GBROWNGtk2-Ex-MPlayerEmbed0.012005-10-17 08:24:18
POLGABPOD2-FR0.012005-10-17 08:49:59
KITEgestalt0.0.12005-10-17 09:46:05
HDPIO-Handle-Rewind0.012005-10-17 10:09:22
MAKOTOdelay_use1.002005-10-18 03:59:46
CTBROWNWin32-Excel-Refresh0.022005-10-18 06:14:32
MIYAGAWAKwiki-URLBL0.012005-10-18 06:29:53
CORIONHTTP-Request-FromTemplate0.012005-10-18 14:42:36
BOSUHTML-Tested0.042005-10-18 16:56:57
BOSUApache-SWIT0.012005-10-18 17:02:39
OFEYAIKONGtk2-Ex-NumberRange0.012005-10-18 18:53:35
GROMMELTeradata-BTET0.012005-10-18 22:01:55
LYOKATOCatalyst-Plugin-StashSetter0.012005-10-19 06:52:06
WSNYDERParallel-Forker1.2002005-10-19 09:21:00
TOCIYUKIAlgorithm-Diff30.052005-10-19 10:54:50
TOCIYUKIText-Diff30.052005-10-19 12:00:55
PMHHTML-StickyForm0.072005-10-19 12:26:59
RHUNDTCGI-Lite-Request0.012005-10-19 17:54:28
CEESHEKCGI-Application-Plugin-Authorization0.012005-10-20 15:07:09
ALEXMASSInSilicoSpectro0.9.72005-10-20 18:18:03
OFEYAIKONGtk2-Ex-SearchBox0.012005-10-20 23:58:27
ANDREWFTemplate-Plugin-Lingua-EN-Inflect0.022005-10-21 03:10:18
EARLIPC-Lock0.102005-10-21 04:08:36
SRIHTTP-Request-AsCGI0.12005-10-21 07:30:42
AJGOUGHGeomag-Kyoto-Dst0.012005-10-21 09:46:24
HDMXML-Filter-Normalize0.012005-10-21 16:58:14
SCHUBIGERMake-Build-Convert0.20_032005-10-21 18:16:05
SSORICHECGI-Application-Plugin-Authentication-Driver-CDBI0.022005-10-21 20:07:29
NIKCTemplate-Plugin-Clickable-Email0.012005-10-22 07:29:23
BHOLZMANTie-Judy0.012005-10-22 10:52:58
DAGOLDENToolSet0.102005-10-22 18:00:28
BILLHLWP-LastURI0.012005-10-22 19:46:00
SRIOPENSendmail0.12005-10-23 08:12:29
RHUNDTCatalyst-Model-Oryx0.012005-10-23 08:43:24
SCHUBIGERAcme-Text-Rhombus0.162005-10-23 11:34:15
BOSUDBIx-VersionedSchema0.012005-10-23 12:07:26
JROBINSONWWW-A9Toolbar0.012005-10-23 16:18:09
CORIONSniffer-HTTP0.042005-10-23 16:50:28
DANIELTWCCatalyst-Model-EVDB0.012005-10-23 17:38:54
SRIDBIx-Migration0.012005-10-23 19:48:50
TFOUCARTWWW-Sucksub-Divxstation0.012005-10-24 12:44:44
LEMBARKObject-Trampoline0.012005-10-24 13:23:52
OFEYAIKONGtk2-Ex-GroupBy0.022005-10-25 00:39:02
HIDECatalyst-Plugin-HTML-Scrubber0.12005-10-25 05:03:56
NICOLAWdhIndex1.32005-10-25 05:34:54
SARENNERNet-IPAddress1.102005-10-25 09:59:45
JETEVENabaztag0.012005-10-25 10:35:00
STIGAcme-MemorableExit0.272005-10-25 11:02:12
AUTRIJUSmodule-Install0.392005-10-25 12:48:45
SRIClass-DBI-Frozen-3013.0.12005-10-25 14:16:05
KCLARKexcel2txt0.012005-10-25 16:02:21
DMAKIFile-Extract0.012005-10-25 22:26:19
COGAcme-CogIsExperimenting0.012005-10-26 09:37:47
COGAcme-CogIsExperimentingMore0.012005-10-26 09:38:03
MALUKUsofu-config0.32005-10-26 10:38:04
KANECPANPLUS-Shell-Default-Plugins-Diff0.012005-10-26 10:46:36
KANECPANPLUS-Shell-Default-Plugins-RT0.012005-10-26 11:15:30
GEOTIGERCGI-AppBuilder0.112005-10-26 11:51:41
KYANNYCGI-Application-Dispatch-BuildURI0.012005-10-26 12:01:27
GEOTIGERCGI-AppBuilder-Log0.112005-10-26 12:05:40
GEOTIGERCGI-AppBuilder-Message0.112005-10-26 12:07:48
GEOTIGERCGI-AppBuilder-Config0.112005-10-26 12:08:09
JETEVESLOOPS0.012005-10-26 13:43:46
KANECPANPLUS-Dist-Deb0.03_012005-10-26 13:47:42
SCHUBIGERMath-Prime-XS0.132005-10-26 14:51:41
MCMAHONApp-SimpleScan-Plugin-Forget0.012005-10-26 15:10:33
GUIDOTest-Unit-GTestRunner0.012005-10-26 15:55:50
RSAVAGEHTML-Entitize1.002005-10-26 19:52:00
RYBSKEJSOAP-Data-ComplexType0.012005-10-26 23:49:35
YAPPOData-ToruCa0.012005-10-27 09:20:42
OVIDHOP-Stream0.012005-10-27 14:15:43
BRICASDBIx-Class-Loader-ADO0.012005-10-27 15:03:16
NACHBAURCache-YAML0.012005-10-27 15:05:27
NACHBAURCache-YAMLCache0.012005-10-27 15:09:30
JGMYERSEncode-Detect0.012005-10-27 16:54:39
NEKOKAKCGI-Application-Plugin-Config-YAML0.012005-10-28 03:52:53
RGARCIAMDV-Distribconf1.002005-10-28 06:01:43
GAFFIEETL-Pequel2.4-12005-10-28 08:07:41
RGARCIAMDV-Packdrakeng1.002005-10-28 08:26:29
AZSGraph-ModularDecomposition0.122005-10-28 08:29:57
HTCHAPMANRTx-RightsMatrix0.012005-10-28 10:57:23
PHAYLONPOE-Component-Basement0.012005-10-28 11:39:00
RKINYONPerl6-Roles0.012005-10-28 11:42:44
DARNOLDThread-Resource-RWLock2.012005-10-28 13:31:36
JGIBSONGeo-Ellipsoid0.92005-10-28 17:20:51
RSMITHVUser-Install0.1.02005-10-28 17:26:17
OFEYAIKONGtk2-Ex-GraphViz0.012005-10-28 18:17:27
OVIDHOP-Parser0.012005-10-28 20:20:47
OVIDHOP-Lexer0.012005-10-28 20:32:15
RHYTHMANPDF-Table0.012005-10-29 01:16:58
TFOUCARTWWW-Sucksub-Attila0.012005-10-29 05:40:35
LEMBARKPlugin-Installer0.012005-10-29 16:04:35
TOKUHIROMClass-DBI-Plugin-RetrieveFromSQL0.012005-10-30 02:30:44
EIJABBMARC-File-MARCMaker0.052005-10-30 11:09:53
SCHUBIGERAlgorithm-MedianSelect-XS0.122005-10-30 15:21:56
MRAMBERGWWW-Mechanize-CGI0.12005-10-30 19:14:28
IWALZPod2html02005-10-30 20:57:38
JTATUMAudio-Radio-Sirius0.012005-10-31 03:06:21
MSCHILLIGaim-Log-Parser0.012005-10-31 05:09:51
RSECGI-Session-ID-uuid0.032005-10-31 08:46:43
MARKWINCNC-Cog0.062005-10-31 10:16:00
EVANZSPDF-CreateSimple1-012005-10-31 11:25:25
CRAKRJACKModPerl-PackageRegistry0.012005-10-31 12:43:29
JDHEDDENObject-InsideOut0.01.002005-10-31 13:15:33

New Distributions for November 2005 (241)

AuthorDistributionVersionRelease Date/Time
MBARBONAlien-Selenium0.012005-11-01 04:53:20
MBARBONTest-WWW-Selenium0.012005-11-01 04:55:26
SMUELLERMath-Symbolic-Custom-Transformation1.002005-11-01 08:16:08
TYPESTERCatalyst-Plugin-Authentication-CDBI-Basic0.012005-11-01 13:52:32
SCHUBIGERModule-Build-Convert0.212005-11-01 16:03:55
CLOTHOModule-License-Report0.012005-11-01 18:18:46
CLACOCatalyst-Model-SVN0.012005-11-01 20:09:40
DBROBINSNet-SSH20.012005-11-02 01:07:00
FXNAlgorithm-Combinatorics0.012005-11-02 19:13:55
MCMAHONWWW-Mechanize-Plugin-Snapshot0.012005-11-02 20:03:36
TOKUHIROMSledge-Plugin-AlwaysFillInForm0.012005-11-03 02:17:01
NIKCTemplate-Plugin-Subst0.012005-11-03 05:33:14
TOKUHIROMSledge-Plugin-Template-Plugin-Comma0.012005-11-03 06:40:57
DENKINGERGames-Poker-HistoryParser1.32005-11-03 09:58:56
TOMITemplate-TAL0.82005-11-03 10:50:41
CFRANKSHTML-Menu-Select1.002005-11-03 10:59:13
AWRIGLEYText-Elidev0.0.12005-11-03 11:18:44
COGTest-RandomResults0.012005-11-03 18:53:15
RENEEBText-CSV-DetectSeparator0.012005-11-03 19:14:42
SRIText-SimpleTable0.012005-11-03 23:28:31
AAKDXML-Simple-Tree0.022005-11-04 02:44:45
NEKOKAKClass-DBI-Plugin-TimePiece0.012005-11-04 10:57:39
AHICOXXML-Parser-YahooRESTGeocode0.12005-11-04 12:35:44
SCHUBIGERMath-Factor-XS0.302005-11-04 17:48:45
RJBSLog-Dispatch-TextTable0.012005-11-04 19:53:51
HATACGI-Uricode0.032005-11-05 01:31:55
MWDHKDigest-MD5-Reverse1.02005-11-05 06:26:12
ADAMKCPAN-Mini-Extract0.102005-11-05 06:40:52
TOKUHIROMSledge-Plugin-TemplatePrePostProcess0.012005-11-05 08:14:42
JSTENZELPerlPoint-Generator-XML0.012005-11-05 09:41:01
JSTENZELPerlPoint-Generator-XML-XHTML0.012005-11-05 09:41:18
JSTENZELPerlPoint-Template-Traditional0.012005-11-05 09:41:35
JSTENZELPerlPoint-styles0.012005-11-05 09:43:47
SAYANOWWW-Livedoor0.0342005-11-05 10:47:32
JEROMEMCKNet-ICQ-On1.62005-11-05 17:18:05
JEROMEMCKICQOn1.62005-11-05 17:32:42
TOKUHIROMSledge-Plugin-Layout0.012005-11-05 22:34:06
SRIText-Markdown1.0.12005-11-05 23:07:46
SRIDBIx-Class-WebForm0.012005-11-05 23:40:10
ADAMKCPAN-Metrics0.012005-11-06 02:27:02
TELSMath-Fractal-Mandelbrot0.032005-11-06 10:15:49
LTRIANTWin32-FirewallParser0.012005-11-06 10:53:52
LUKHNOSFinance-TW-CurrencyConvert0.012005-11-06 12:16:33
SJZASADAXML-CanonicalizeXML0.012005-11-06 17:23:44
JMCADAEnv-Sourced1.002005-11-06 21:54:47
JMCADANet-BitTorrent-PeerPacket1.02005-11-06 23:15:54
TBONEClass-Cache1.122005-11-07 00:20:06
RYANMAuthen-Class-HtAuth0.012005-11-07 15:29:57
ADAMKTest-NeedsDisplay0.012005-11-07 21:07:55
MDASHClass-Classless-DBI0.012005-11-08 00:42:23
HATACGI-Cookie-Pack0.102005-11-08 02:15:16
NAOYATemplate-Plugin-Markdown0.012005-11-08 05:12:35
RKINYONTree1.002005-11-08 13:25:03
RKINYONTree-Persist1.002005-11-08 13:26:58
RKINYONTree-Compat1.002005-11-08 15:16:23
JESSEJifty-DBI0.05_012005-11-08 16:32:52
NEKOKAKClass-DBI-Plugin-DateFormat-Oracle0.012005-11-08 23:28:38
NEKOKAKClass-DBI-Plugin-TimePiece-Oracle0.012005-11-08 23:28:56
DKAMHOLZAuthen-Htpasswd0.12005-11-08 23:32:40
DOWENSWWW-NanoRef0.012005-11-09 00:33:55
RSAVAGEHTML-Entities-Interpolate1.002005-11-09 00:51:17
ADAMKFile-Tasks0.052005-11-09 13:57:53
SHLOMIFTest-Run0.0100_052005-11-09 14:05:40
LREEVESDBI-ResultPager0.9.02005-11-09 16:15:43
JTKIP-Anonymous0.042005-11-09 16:17:49
HDPHash-MoreUtils0.012005-11-09 21:05:35
KRAKENntci0.3beta2005-11-09 21:33:21
DMUEYAltaVista-BabelFishv42.0.12005-11-09 21:48:53
KAZEBUROCGI-Application-Plugin-Stash0.012005-11-10 01:19:03
HATACGI-UriThingy0.082005-11-10 02:59:51
COGBusiness-PT-NIF0.012005-11-10 07:27:19
COGBusiness-PT-BI0.012005-11-10 10:57:23
HDPGetopt-Long-Descriptive0.012005-11-10 12:49:00
RSAVAGECGI-Application-Demo1.002005-11-10 17:07:01
HDPParams-Validate-Micro0.012005-11-10 17:37:59
LINNINBusiness-PayPal-SDK0.12005-11-10 19:22:03
JMEHNLECourier-Filter0.172005-11-10 21:53:38
BDFOYModule-Release1.022005-11-10 22:14:47
KRIPTMozilla-Mork0.012005-11-11 06:20:04
ROODETime-Normalize0.012005-11-11 12:42:09
NICOLAWApache2-AuthColloquy0.012005-11-11 13:08:30
GARNACHOSys-Gamin0.12005-11-11 13:16:44
TFOUCARTWWW-Sucksub-Vostfree0.012005-11-11 16:51:27
COGWWW-Dictionary0.012005-11-11 22:41:39
BTROTTCatalyst-Plugin-Authentication-OpenID0.012005-11-12 01:55:14
NICOLAWColloquy-Data1.012005-11-12 17:04:54
OVIDTest-JSON0.012005-11-12 20:19:24
JKEENANFile-Save-Home0.022005-11-12 21:31:32
MATTKAudio-Cuefile-Parser0.012005-11-12 21:39:45
TOKUHIROMClass-DBI-Plugin-RandomStringColumn0.052005-11-13 02:12:22
TOKUHIROMSledge-Authorizer-BasicAuth0.012005-11-13 02:19:07
TOKUHIROMSledge-Plugin-XMLRPC0.012005-11-13 08:49:17
MRAMBERGTest-WWW-Mechanize-CGI0.12005-11-13 15:57:22
IANAcme-LAUTER-DEUTSCHER1.002005-11-13 16:02:24
JOHANLNet-Download-Queue0.03_012005-11-13 16:12:15
DMUEYAcme-ScriptoPhrenicv0.0.12005-11-13 16:48:40
DMUEYAcme-Scripticidev0.0.12005-11-13 17:47:25
ESSKARCrypt-SaltedHash0.012005-11-13 18:15:47
IANColor-Scheme1.002005-11-13 20:59:09
NAOYAAcme-Web20-Validator0.012005-11-13 23:12:28
HDMLog-Dispatch-Atom0.012005-11-14 06:42:56
EVANZSPDF-CreateSimple1-0-212005-11-14 12:56:16
ADAMKFile-BLOB0.012005-11-14 14:21:29
NUFFINCatalyst-Plugin-Session0.012005-11-14 15:45:06
NUFFINCatalyst-Plugin-Session-State-Cookie0.012005-11-14 15:47:18
NUFFINCatalyst-Plugin-Session-State-URI0.012005-11-14 15:49:45
NUFFINCatalyst-Plugin-Session-Store-Memcached0.012005-11-14 15:55:43
AGRUNDMACatalyst-Plugin-Session-Store-DBI0.012005-11-14 16:05:02
SOMMAROlleDB2.0002005-11-14 16:16:39
NUFFINCatalyst-Plugin-Session-Store-FastMmap0.012005-11-14 16:39:14
HACHIPOE-Component-Client-LDAP0.032005-11-14 16:47:41
JOHANLCatalyst-View-GraphViz0.01_12005-11-14 18:01:37
ESSKARCatalyst-Plugin-Session-Store-File0.022005-11-14 18:21:05
DESPAIRWebMoney-WMSigner0.022005-11-15 03:12:19
SGOELDNERMonetDB-CLI-MapiLib0.012005-11-15 03:22:25
SGOELDNERMonetDB-CLI-MapiPP0.012005-11-15 03:22:48
SGOELDNERMonetDB-CLI-MapiXS0.012005-11-15 03:23:15
SGOELDNERMonetDB-CLI0.012005-11-15 03:38:41
IJLIAOWWW-Scraper-ISBN-TWBooks_Driver0.012005-11-15 07:47:34
IJLIAOWWW-Scraper-ISBN-TWSilkbook_Driver0.012005-11-15 08:47:17
IJLIAOWWW-Scraper-ISBN-TWKingstone_Driver0.012005-11-15 11:46:57
IJLIAOWWW-Scraper-ISBN-TWEslitebooks_Driver0.012005-11-15 12:49:46
JROCKWAYFile-CreationTime1.002005-11-15 12:51:46
ITGURUConfig-Universal0.22005-11-15 14:41:40
EVDBClass-DBI-DFV0.012005-11-15 17:36:22
TANIGUCHIClass-DBI-Plugin-PseudoColumns0.012005-11-15 18:31:19
AGENTPerlMaple0.012005-11-15 19:59:31
LUKECWWW-Selenium-Utils0.012005-11-15 23:57:23
IJLIAOWWW-Scraper-ISBN-TWSrbook_Driver0.012005-11-16 04:44:57
ABHGeo-Coder-Yahoo0.012005-11-16 07:42:43
JAOSCatalyst-Plugin-Session-Store-CDBI0.022005-11-16 11:55:24
AUTRIJUSApache2-PAR0.00_012005-11-16 13:59:07
GROMMELTeradata-SQL0.012005-11-16 14:49:48
IJLIAOWWW-Scraper-ISBN-TWTenlong_Driver0.012005-11-16 21:18:55
DMAKIClass-DBI-Plugin-DateTime0.012005-11-16 23:59:22
LYOKATOFormValidator-Simple-Plugin-CDBI-Unique0.01_022005-11-17 09:33:49
LYOKATOFormValidator-Simple-Plugin-DBIC-Unique0.022005-11-17 09:34:20
FAYLANDLingua-Han-Cantonese0.012005-11-17 10:09:55
JROCKWAYConfigDirectory0.012005-11-17 13:03:51
ROHANFinance-Bank-HDFC0.012005-11-17 14:15:27
WYLLIEGames-YASudoku0.012005-11-17 21:03:55
DMUEYUnix-PIDv0.0.12005-11-17 21:26:35
KENWUWWW-Google-Video0.12005-11-17 23:58:13
IJLIAOWWW-Scraper-ISBN-TWSoidea_Driver0.012005-11-18 02:43:11
OLIVIERTWebService-Validator-Feed-W3C0.12005-11-18 03:40:48
FAYLANDLingua-Han-Utils0.012005-11-18 05:42:42
SIMONWMovie-Info0.12005-11-18 06:33:49
FAYLANDLingua-Han-Stroke0.012005-11-18 07:53:33
IJLIAOWWW-Scraper-ISBN-TWSanmin_Driver0.012005-11-18 11:13:31
ESSKARCatalyst-View-HTML-Template-Compiled0.022005-11-18 11:28:35
DAVEBAIRDMaypole-Plugin-Trace0.012005-11-18 11:46:34
TIMAXML-RAI-TrackBack0.12005-11-18 13:33:28
KRSGMail-IMAPD0.902005-11-18 17:11:29
RACHELNet-Amazon-Signature0.012005-11-19 00:25:04
RALAMOSMPHP-Session-DB0.22005-11-19 01:12:27
TYPESTERMIME-Lite-TT-HTML-Japanese0.012005-11-19 05:13:53
JKEENANString-MkVarName0.032005-11-19 09:51:26
CLACOCatalyst-Model-NetBlogger0.012005-11-19 19:28:33
CHUNZIMIME-Lite-TT-HTML0.012005-11-19 20:56:29
JPEACOCKModule-Starter-XSimplev0.0.12005-11-19 21:35:32
ADAMKTask1.002005-11-19 23:54:48
ADAMKTask-CVSMonitor0.0060032005-11-20 00:15:39
SOMMARMSSQL-OlleDb2.0002005-11-20 13:49:33
SRITask-Catalyst0.012005-11-20 22:22:49
JROCKWAYFile-Slurp-SmallFile0.012005-11-20 22:37:39
SMPETERSChess-PGN-Parse-FileHandle0.012005-11-20 23:32:41
PTHOMSENBBConfig0.022005-11-21 00:52:24
JROCKWAYFile-Attribute0.012005-11-21 02:33:40
ALFIECode-Dumper0.012005-11-21 02:58:17
KARASIKDBIx-Roles1.002005-11-21 12:28:15
CNANDORSlash-Client0.012005-11-21 12:36:31
BINGOSPOE-Component-Client-Whois0.012005-11-21 15:50:57
HOLBROOKBundle-CUFTS0.012005-11-21 18:08:21
IJLIAOWWW-Scraper-ISBN-TWApexbook_Driver0.012005-11-21 19:53:08
SHOTCatalyst-Plugin-Redirect0.012005-11-21 20:55:31
RJBSSub-Install0.012005-11-21 22:43:39
RJBSHTML-Widget-Factory0.012005-11-21 22:59:44
YAPPOJavaScript-Swell0.012005-11-21 23:02:12
IJLIAOWWW-Scraper-ISBN-TWYlib_Driver0.012005-11-21 23:16:27
ODIGITYParallel-Simple0.012005-11-22 04:39:26
DLANDData-PowerSet0.012005-11-22 06:53:35
JMASTROSOCR-PerfectCR0.012005-11-22 07:24:46
IJLIAOWWW-Scraper-ISBN-TWCwbook_Driver0.012005-11-22 13:04:35
SCRESTOSys-MemInfo0.12005-11-22 13:30:14
CHISELCatalyst-Plugin-Dumperv0.0.12005-11-22 17:07:12
MCMAHONApp-SimpleScan-Plugin-Snapshot0.012005-11-22 18:00:37
ACDALTONGames-DungeonMaker0.012005-11-23 00:19:31
BRICASTemplate-Provider-FromDATA0.012005-11-23 10:10:11
OVIDClass-BuildMethods0.102005-11-23 15:34:43
JCHINOpenGL-GLM0.012005-11-23 21:05:29
SAMVCatalyst-Plugin-Config-JSON0.032005-11-24 17:47:51
COGAcme-CreatingCPANModules0.012005-11-24 18:50:53
KRAKENNet-Telnet-Cisco-IOS0.4beta2005-11-24 19:56:10
CRAKRJACKDBIx-Transaction0.0012005-11-24 22:09:26
IJLIAOWWW-Scraper-ISBN-TWPchome_Driver0.012005-11-25 01:24:11
RGARCIAurpmi4.8.22005-11-25 09:53:04
JKEENANString-PerlIdentifier0.042005-11-25 10:45:36
MAKAROWSys-Manage0.502005-11-25 13:23:14
JOHANLCatalyst-View-TT-ControllerLocal0.012005-11-26 13:03:58
JOEYATESDatabase-Wrapper1.042005-11-26 17:58:16
GHUTCHISChemistry-OpenBabel1.0.02005-11-26 21:06:11
NUFFINTerm-VT102-Boundless0.012005-11-27 04:30:47
CFAERBERNumber-Phone-Noramlize0.00_200511272005-11-27 08:42:22
SOMMARWin32-SqlServer2.0012005-11-27 12:55:30
MLEHMANNGlib-Event0.12005-11-27 14:25:32
NUFFINCatalyst-Plugin-Authentication0.012005-11-27 16:15:52
NUFFINCatalyst-Plugin-Authentication-Credential-TypeKey0.12005-11-27 16:21:10
NUFFINCatalyst-Plugin-Authorization-Roles0.012005-11-27 16:26:24
NUFFINCatalyst-Plugin-Authorization-ACL0.012005-11-27 16:34:46
DKAMHOLZCatalyst-Plugin-Authentication-Store-Htpasswd0.012005-11-27 17:01:11
NUFFINCatalyst-Plugin-Session-PerUser0.012005-11-27 17:27:30
CYBERmGen1.002005-11-27 17:32:32
LANDMANDBIx-SimplePerl1.22005-11-27 18:28:04
ALEXPCatalyst-Model-DBI0.102005-11-27 18:30:11
GWADEJGames-Maze-SVG0.62005-11-27 18:52:53
CLACOClass-Data-Accessor0.012005-11-27 21:27:51
FBRIEREApache-Request-I18N0.042005-11-28 00:12:07
JJOREB-Lisp0.012005-11-28 00:31:39
RSAVAGECGI-Session-Driver-oracle1.002005-11-28 04:34:51
EGERMANLemonolap-Log4lemon0.012005-11-28 06:21:24
MSICKELGftracks0.52005-11-28 13:00:39
AARNet-LDAP-Server0.22005-11-28 13:27:32
KWILLIAMSAlgorithm-SVMLight0.022005-11-28 15:23:58
SAMVTest-Depends0.012005-11-28 19:09:27
KAZEBUROData-Page-Navigation0.022005-11-28 21:31:38
NIGEGoo0.032005-11-29 04:49:20
SMUELLERTask-Math-Symbolic1.002005-11-29 05:11:23
TBONEClass-Prototyped-Mixin2.32005-11-29 05:24:26
DODGERModel3D-WavefrontObject1.002005-11-29 08:01:43
ADAMKPITA-Report0.01_012005-11-29 08:24:49
AUTRIJUSTest-use-ok0.012005-11-29 10:02:28
SHLOMIFTest-Run-CmdLine0.0100_012005-11-29 16:33:38
SHLOMIFTest-Run-CmdLine-Drivers-ColorSummary0.0100_002005-11-29 16:58:32
TFOUCARTWWW-Sucksub-Frigo0.012005-11-29 17:26:58
SAMVTemplate-Plugin-Heritable0.012005-11-29 22:51:08
JJOREB-OptreeShortestPath0.012005-11-29 23:31:21
ALEXPCatalyst-Model-DBI-SQL-Library0.102005-11-30 04:18:16
OPIApache-DBI-Cache0.062005-11-30 04:33:38
MCMAHONSymbol-Glob0.012005-11-30 15:29:21
CLOTHOFLV-Info0.012005-11-30 15:51:01
JOHANLCatalyst-Enzyme0.01012005-11-30 16:28:01

New Distributions for December 2005 (150)

AuthorDistributionVersionRelease Date/Time
NOKYSuperLog_i0.012005-12-01 13:12:12
NOKYSuperLog-Filename0.012005-12-01 13:48:06
MIKOString-Util-0102005-12-01 13:52:02
MLEHMANNAnyEvent0.12005-12-01 13:57:44
WKIMacPerl-AppleScript0.022005-12-01 15:31:45
DPARISHTTP-CryptoCookie1.102005-12-02 08:19:37
ASCOPEMT-Import-Base1.02005-12-02 10:40:01
ASCOPEMT-Import-Mbox1.02005-12-02 10:42:12
ASCOPEMT-Import-Mbox-Importer1.02005-12-02 10:42:35
PETDANCEack0.902005-12-02 12:16:33
JROCKWAYApache-AuthLDAPBind0.012005-12-02 19:43:34
JPEACOCKModule-Release-SVKv0.0.12005-12-02 20:21:32
AGRUNDMACatalyst-Plugin-Authentication-Store-DBIC0.012005-12-02 22:00:32
BOWMANBSClass-DBI-Storable0.012005-12-02 22:06:18
MARKSTOSJavaScript-DataFormValidator0.502005-12-04 11:09:15
EYCKNet-Lite-XMPP0.012005-12-04 15:22:08
EYCKNet-Lite-XMMP0.022005-12-04 16:56:51
NICOLAWUtil-SelfDestruct1.072005-12-04 17:30:22
IANClass-Agreement0.012005-12-04 20:17:50
TOKUHIROMSledge-Plugin-QRCode0.012005-12-04 20:28:43
STEVANTest-Image-GD0.012005-12-04 20:54:27
WILLERTCatalyst-Model-EmailStore0.012005-12-05 05:42:22
NUFFINCatalyst-Plugin-Params-Nested0.012005-12-05 06:09:43
EGERMANLemonolap-Wrapperolap0.012005-12-05 08:38:12
PHAYLONPhaylon-Class-Cloner0.012005-12-05 11:54:35
MCMAHONApp-SimpleScan-Plugin-Retry0.012005-12-05 18:59:08
MITTIPDF-Report-Table1.002005-12-05 19:01:17
SKONNOUPnP1.02005-12-06 07:35:21
GROUSSEData-LetterTree0.12005-12-06 07:41:32
DONGXUTagLib1.42005-12-06 10:14:27
GUIDOData-Walk0.022005-12-06 11:45:48
ROODEText-Printf0.062005-12-06 14:10:20
NICOLAWRRD-Simple1.062005-12-06 16:48:07
SAPERSys-Syslog0.092005-12-06 17:19:29
MIYAGAWAWWW-Blog-Metadata-MobileLinkDiscovery0.012005-12-07 00:58:09
BREQUESENChemistry-Artificial-Graphics0.012005-12-07 03:58:39
BREQUESENChemistry-Artificial-SQL0.012005-12-07 03:59:07
BREQUESENChemistry-SQL0.012005-12-07 03:59:28
WONKOCGI-Application-Plugin-ViewCode0.032005-12-07 12:50:44
YORHELHTML-BBReverse0.012005-12-07 12:52:49
MITTIPostScript-Simple-Table1.002005-12-07 15:02:27
STEVANTest-PDF0.012005-12-07 16:36:28
MNDRIXClass-DBI-MSAccess0.012005-12-07 16:55:59
SCHROEERLingua-DE-Wortschatz1.232005-12-07 17:11:56
BRADFITZUnicode-CheckUTF81.002005-12-07 18:54:20
KADOSBundle-OpenILS0.012005-12-07 19:31:35
KADOSBundle-OpenSRF0.012005-12-07 20:18:14
MARKSTOSCGI-Application-Plugin-HTCompiled1.002005-12-07 23:07:36
PEREZXML-RSS-FOXSports0.022005-12-08 03:19:50
FMERGESPGPLOT-Simple0.012005-12-08 05:29:54
ROODERegexp-Common-time0.012005-12-08 06:55:59
LDOMKETk-MiniCalendar0.062005-12-08 11:33:41
BRICASGedcom-FOAF0.012005-12-08 11:41:24
SKONNONet-UPnP1.12005-12-08 13:08:45
DONGXUAudio-TagLib1.42005-12-08 15:27:09
BRYCETest-Parser0.992005-12-08 17:08:50
FRIEDOClass-Unique0.012005-12-08 21:41:53
RETOHCMS-MediaWiki0.80.022005-12-09 06:07:48
SCHROEERLab-VISA1.112005-12-09 06:28:15
RJBSMacro-Micro0.012005-12-09 11:06:01
MARCBPOSIX-SchedYield0.0.12005-12-09 12:35:05
WYANTGames-Sudoku-General0.0012005-12-09 14:36:40
LYOKATOCatalyst-Helper-Doc0.022005-12-10 13:06:16
SMUELLERApp-Physics-ParticleMotion1.002005-12-10 14:13:33
SMUELLERTask-App-Physics-ParticleMotion1.002005-12-10 14:27:19
RECORDONDNet-YADIS-Server0.012005-12-10 15:32:13
POLETTIXAcme-Laughv0.0.12005-12-10 17:33:27
CCOLLINSCurses-Menu1.002005-12-10 18:35:55
CRAKRJACKClass-Clone0.012005-12-10 20:43:12
ADAMKFile-ShareDir0.012005-12-11 11:40:18
TYPESTERCatalyst-Plugin-Authentication-Credential-Flickr0.01_012005-12-11 16:32:25
MARKOVGeo-Point0.0012005-12-12 06:08:32
KIZMathML-Entities-Approximate0.102005-12-12 10:56:38
JESSERT-View-Directory1.42005-12-12 16:12:35
JESSERT-TicketWhiteboard1.02005-12-12 23:09:18
JVEekBoek0.212005-12-13 14:24:28
GUGODCatalyst-Contoller-View0.012005-12-13 16:01:52
JROBINSONDateTime-Format-DB20.012005-12-13 17:13:01
OVIDClass-Meta-Declare0.022005-12-13 18:05:21
RENEEBMath-Intersection-StraightLine0.012005-12-13 21:22:20
LITCHIEAlgorithm-Step0.012005-12-14 01:59:08
MIRKNet-Z3950-ZOOM1.002005-12-14 06:32:51
JVsrep1.092005-12-14 10:52:08
LAXENSyntax-Highlight-Mason1.002005-12-14 22:34:26
AGRUNDMACatalyst-Plugin-Scheduler0.012005-12-15 15:28:23
RYANMClass-Data-Inheritable-Translucent0.012005-12-15 16:19:05
NEKOKAKCGI-Application-Plugin-DebugScreen0.012005-12-16 03:09:34
BASHLOVWWW-Yandex-TIC0.012005-12-16 05:22:00
NJHNet-LibLO0.032005-12-16 10:21:31
CRAKRJACKClass-Driver0.0012005-12-16 17:19:41
OPIApache2-SetOptions0.012005-12-18 01:38:27
DPAVLINMARC-Fast0.022005-12-18 12:15:52
KTAKATATerm-ReadPasswd0.012005-12-18 12:26:30
FMERGESSpork-S5ThemeBlue0.012005-12-18 14:43:43
FMERGESSpork-S5ThemePixel0.012005-12-18 14:44:03
DMUEYAcme-Homerv0.0.12005-12-18 18:28:45
GSIMMONSTemplate-Plugin-HTML-Strip0.012005-12-19 01:09:47
FAYLANDDate-Holidays-CN0.012005-12-20 02:02:19
KTAKATATerm-ReadPassword-Win320.022005-12-20 09:37:56
AUKJANLSF-Hosts0.012005-12-20 11:12:00
JESSERT-Extension-ActivityReports0.12005-12-20 11:16:11
MBARBONWx-Perl-BrowseButton0.012005-12-20 14:04:49
GOSHALWP-Protocol-https-SocksChain1.12005-12-20 14:46:54
EVDBModule-API0.012005-12-20 19:18:00
HOLOWAYDPKG-Parse0.012005-12-20 20:45:10
HOLOWAYCatalyst-Log-Log4perl0.12005-12-20 20:49:12
NEKOKAKCGI-Application-Pluggable0.012005-12-21 00:11:57
BLOONIXLinux-Statistics1.002005-12-21 01:50:46
ISHIGAKICGI-Carp-DebugScreen0.012005-12-21 07:48:35
KIRSLEChatbot-RiveScript0.012005-12-21 17:50:00
NJHAudio-MadJACK0.012005-12-21 19:32:27
SDAGUEimagecluster0.12005-12-21 19:42:23
CRAKRJACKTest-CPAN0.0012005-12-21 20:19:20
ASHLEYHTML-Truncate0.012005-12-22 05:01:46
DJOClass-DBI-FormToolsv0.0.42005-12-22 09:14:21
ZEYAApache-LangPrefCookie0.052005-12-22 11:12:58
MARKSTOSData-FormValidator-ErrMsgs-JavaScript0.50_012005-12-22 20:28:14
HOOWAAsterisk-config0.42005-12-22 21:43:04
MSCHILLINet-SSH-AuthorizedKeysFile0.012005-12-22 22:05:15
RJBSSub-MicroSig0.012005-12-23 00:34:52
CASIANOGift0.32005-12-23 08:09:41
GOZERPPM-Profile1.12005-12-23 17:40:07
JIROSledge-Plugin-Notice0.012005-12-24 02:47:31
SARGIETest-CDBI-Basic0.012005-12-24 10:48:07
JESSEJifty0.512252005-12-25 03:19:39
AUTRIJUSYAML-Syck0.012005-12-25 12:59:15
ADAMKSMS-Send0.012005-12-26 09:00:31
TYPESTERCatalyst-Plugin-Flavour0.012005-12-26 10:59:29
JIROAttribute-Static0.012005-12-26 14:36:32
NJHAudio-JackMiniMix0.012005-12-26 21:15:54
DONGXUAudio-TagLib-Shell1.42005-12-27 01:27:17
GUGODTemplate-Plugin-CSV0.012005-12-27 03:37:48
IKEBETemplate-Stash-EscapeHTML0.012005-12-27 03:39:48
ADAMKSMS-Send-AU-MyVodafone0.012005-12-27 05:55:33
SIMONWLingua-EN-Keywords-Yahoo0.52005-12-28 05:57:05
TOMSONTomKit0.01_22005-12-28 06:54:05
TOMSONApache2-TomKit0.01_22005-12-28 06:56:20
DMUEYFile-Tail-Appv0.0.12005-12-28 15:44:36
INTWOIO-Multiplex-KQueue0.012005-12-28 22:57:38
AWESTHOLMNet-SMTP-TLS0.102005-12-29 11:54:43
SEKIMURATemplate-Provider-Encode0.012005-12-29 12:15:07
MAHITOClass-Args0.012005-12-29 12:37:22
AKIMOVORM0.82005-12-30 00:06:40
NICOLAWWWW-VenusEnvy1.022005-12-30 12:10:21
WILSONDNet-UPCDatabase0.032005-12-30 16:26:08
BRADFITZData-SingletonManager1.002005-12-30 18:12:09
AGRUNDMACatalyst-Plugin-StackTrace0.012005-12-30 23:18:25
ADAMKPITA-Scheme0.012005-12-31 03:52:50
DMUEYData-Paginatev0.0.12005-12-31 11:32:41
KIRSLEArchive-Tyd0.012005-12-31 17:43:13